Wetterdaten: Mittwoch, 07.01.2015
Datum Zeit Temp. Aussen +5cm Feuchte Auss Luftdruck Regen Sonnenschein Regendauer Solar Windben
07.01.2015 00:00 3,8 C 2,8 C 96 % 1023,3 hPa 0,0 l/m 0 min 2 min 0 W/m 18,8 km/h (3 Bft)
07.01.2015 00:02 3,8 C 2,8 C 96 % 1023,3 hPa 0,0 l/m 0 min 2 min 0 W/m 20,9 km/h (4 Bft)
07.01.2015 00:05 3,8 C 2,8 C 96 % 1023,4 hPa 0,0 l/m 0 min 0 min 0 W/m 20,9 km/h (4 Bft)
07.01.2015 00:06 3,8 C 2,8 C 96 % 1023,4 hPa 0,0 l/m 0 min 0 min 0 W/m 23,0 km/h (4 Bft)
07.01.2015 00:08 3,8 C 2,8 C 96 % 1023,4 hPa 0,0 l/m 0 min 0 min 0 W/m 23,0 km/h (4 Bft)
07.01.2015 00:10 3,8 C 2,8 C 96 % 1023,4 hPa 0,0 l/m 0 min 0 min 0 W/m 27,2 km/h (4 Bft)
07.01.2015 00:12 3,8 C 2,8 C 96 % 1023,5 hPa 0,0 l/m 0 min 0 min 0 W/m 25,1 km/h (4 Bft)
07.01.2015 00:14 3,8 C 2,8 C 96 % 1023,5 hPa 0,0 l/m 0 min 0 min 0 W/m 16,7 km/h (3 Bft)
07.01.2015 00:16 3,8 C 2,8 C 96 % 1023,5 hPa 0,0 l/m 0 min 0 min 0 W/m 20,9 km/h (4 Bft)
07.01.2015 00:18 3,8 C 2,8 C 96 % 1023,5 hPa 0,0 l/m 0 min 0 min 0 W/m 31,4 km/h (5 Bft)
07.01.2015 00:20 3,8 C 2,8 C 96 % 1023,5 hPa 0,0 l/m 0 min 0 min 0 W/m 25,1 km/h (4 Bft)
07.01.2015 00:22 3,8 C 2,8 C 96 % 1023,5 hPa 0,0 l/m 0 min 0 min 0 W/m 25,1 km/h (4 Bft)
07.01.2015 00:24 3,8 C 2,8 C 96 % 1023,5 hPa 0,0 l/m 0 min 0 min 0 W/m 23,0 km/h (4 Bft)
07.01.2015 00:26 3,8 C 2,8 C 96 % 1023,6 hPa 0,0 l/m 0 min 0 min 0 W/m 18,8 km/h (3 Bft)
07.01.2015 00:28 3,8 C 2,8 C 96 % 1023,6 hPa 0,0 l/m 0 min 0 min 0 W/m 20,9 km/h (4 Bft)
07.01.2015 00:30 3,8 C 2,8 C 96 % 1023,6 hPa 0,0 l/m 0 min 0 min 0 W/m 16,7 km/h (3 Bft)
07.01.2015 00:32 3,8 C 2,8 C 96 % 1023,6 hPa 0,0 l/m 0 min 0 min 0 W/m 23,0 km/h (4 Bft)
07.01.2015 00:34 3,8 C 2,8 C 96 % 1023,6 hPa 0,0 l/m 0 min 0 min 0 W/m 25,1 km/h (4 Bft)
07.01.2015 00:36 3,8 C 2,8 C 96 % 1023,6 hPa 0,0 l/m 0 min 0 min 0 W/m 25,1 km/h (4 Bft)
07.01.2015 00:38 3,9 C 2,8 C 96 % 1023,6 hPa 0,0 l/m 0 min 0 min 0 W/m 27,2 km/h (4 Bft)
07.01.2015 00:40 3,9 C 2,8 C 96 % 1023,6 hPa 0,0 l/m 0 min 0 min 0 W/m 27,2 km/h (4 Bft)
07.01.2015 00:42 3,9 C 2,8 C 96 % 1023,6 hPa 0,0 l/m 0 min 2 min 0 W/m 25,1 km/h (4 Bft)
07.01.2015 00:44 3,9 C 2,8 C 97 % 1023,6 hPa 0,0 l/m 0 min 2 min 0 W/m 27,2 km/h (4 Bft)
07.01.2015 00:46 3,9 C 2,8 C 97 % 1023,6 hPa 0,0 l/m 0 min 2 min 0 W/m 18,8 km/h (3 Bft)
07.01.2015 00:48 3,9 C 2,8 C 97 % 1023,6 hPa 0,0 l/m 0 min 2 min 0 W/m 20,9 km/h (4 Bft)
07.01.2015 00:50 3,9 C 2,8 C 96 % 1023,6 hPa 0,0 l/m 0 min 2 min 0 W/m 23,0 km/h (4 Bft)
07.01.2015 00:52 3,9 C 2,8 C 97 % 1023,6 hPa 0,0 l/m 0 min 2 min 0 W/m 27,2 km/h (4 Bft)
07.01.2015 00:54 3,9 C 2,8 C 97 % 1023,7 hPa 0,0 l/m 0 min 2 min 0 W/m 23,0 km/h (4 Bft)
07.01.2015 00:56 3,9 C 2,8 C 97 % 1023,7 hPa 0,0 l/m 0 min 0 min 0 W/m 23,0 km/h (4 Bft)
07.01.2015 00:58 3,9 C 2,8 C 97 % 1023,7 hPa 0,0 l/m 0 min 0 min 0 W/m 25,1 km/h (4 Bft)
07.01.2015 01:00 3,9 C 2,8 C 97 % 1023,7 hPa 0,0 l/m 0 min 0 min 0 W/m 16,7 km/h (3 Bft)
07.01.2015 01:02 3,9 C 2,8 C 97 % 1023,7 hPa 0,0 l/m 0 min 0 min 0 W/m 20,9 km/h (4 Bft)
07.01.2015 01:04 3,9 C 2,8 C 97 % 1023,8 hPa 0,0 l/m 0 min 0 min 0 W/m 18,8 km/h (3 Bft)
07.01.2015 01:06 3,9 C 2,8 C 97 % 1023,7 hPa 0,2 l/m 0 min 0 min 0 W/m 16,7 km/h (3 Bft)
07.01.2015 01:08 3,9 C 2,8 C 97 % 1023,8 hPa 0,0 l/m 0 min 0 min 0 W/m 14,6 km/h (3 Bft)
07.01.2015 01:10 4,0 C 2,8 C 97 % 1023,8 hPa 0,0 l/m 0 min 0 min 0 W/m 14,6 km/h (3 Bft)
07.01.2015 01:12 4,0 C 2,8 C 97 % 1023,9 hPa 0,0 l/m 0 min 2 min 0 W/m 10,5 km/h (2 Bft)
07.01.2015 01:14 4,0 C 2,8 C 97 % 1023,9 hPa 0,0 l/m 0 min 2 min 0 W/m 14,6 km/h (3 Bft)
07.01.2015 01:16 4,0 C 2,8 C 97 % 1023,9 hPa 0,0 l/m 0 min 2 min 0 W/m 14,6 km/h (3 Bft)
07.01.2015 01:18 4,0 C 2,8 C 97 % 1023,9 hPa 0,0 l/m 0 min 2 min 0 W/m 18,8 km/h (3 Bft)
07.01.2015 01:20 4,0 C 2,8 C 97 % 1023,9 hPa 0,0 l/m 0 min 2 min 0 W/m 14,6 km/h (3 Bft)
07.01.2015 01:22 4,0 C 2,8 C 97 % 1023,9 hPa 0,0 l/m 0 min 2 min 0 W/m 18,8 km/h (3 Bft)
07.01.2015 01:24 4,1 C 2,8 C 97 % 1024,0 hPa 0,0 l/m 0 min 2 min 0 W/m 12,6 km/h (3 Bft)
07.01.2015 01:26 4,1 C 2,8 C 97 % 1024,0 hPa 0,0 l/m 0 min 2 min 0 W/m 12,6 km/h (3 Bft)
07.01.2015 01:28 4,1 C 2,8 C 97 % 1023,9 hPa 0,0 l/m 0 min 2 min 0 W/m 12,6 km/h (3 Bft)
07.01.2015 01:30 4,1 C 2,8 C 97 % 1023,9 hPa 0,0 l/m 0 min 2 min 0 W/m 12,6 km/h (3 Bft)
07.01.2015 01:32 4,1 C 2,8 C 97 % 1024,0 hPa 0,0 l/m 0 min 2 min 0 W/m 12,6 km/h (3 Bft)
07.01.2015 01:34 4,1 C 2,8 C 97 % 1023,9 hPa 0,0 l/m 0 min 0 min 0 W/m 12,6 km/h (3 Bft)
07.01.2015 01:36 4,1 C 2,8 C 97 % 1024,0 hPa 0,0 l/m 0 min 0 min 0 W/m 14,6 km/h (3 Bft)
07.01.2015 01:38 4,1 C 2,8 C 97 % 1024,1 hPa 0,0 l/m 0 min 0 min 0 W/m 12,6 km/h (3 Bft)
07.01.2015 01:40 4,1 C 2,8 C 97 % 1024,1 hPa 0,0 l/m 0 min 0 min 0 W/m 16,7 km/h (3 Bft)
07.01.2015 01:42 4,1 C 2,8 C 97 % 1024,3 hPa 0,0 l/m 0 min 0 min 0 W/m 14,6 km/h (3 Bft)
07.01.2015 01:44 4,2 C 2,8 C 97 % 1024,2 hPa 0,0 l/m 0 min 0 min 0 W/m 14,6 km/h (3 Bft)
07.01.2015 01:46 4,2 C 2,8 C 97 % 1024,2 hPa 0,0 l/m 0 min 0 min 0 W/m 8,4 km/h (2 Bft)
07.01.2015 01:48 4,2 C 2,8 C 97 % 1024,3 hPa 0,0 l/m 0 min 0 min 0 W/m 12,6 km/h (3 Bft)
07.01.2015 01:50 4,2 C 2,8 C 97 % 1024,3 hPa 0,0 l/m 0 min 0 min 0 W/m 12,6 km/h (3 Bft)
07.01.2015 01:52 4,2 C 2,8 C 97 % 1024,3 hPa 0,0 l/m 0 min 0 min 0 W/m 14,6 km/h (3 Bft)
07.01.2015 01:54 4,2 C 2,8 C 97 % 1024,3 hPa 0,0 l/m 0 min 0 min 0 W/m 16,7 km/h (3 Bft)
07.01.2015 01:56 4,2 C 2,8 C 97 % 1024,3 hPa 0,0 l/m 0 min 0 min 0 W/m 16,7 km/h (3 Bft)
07.01.2015 01:58 4,2 C 2,8 C 97 % 1024,3 hPa 0,0 l/m 0 min 0 min 0 W/m 16,7 km/h (3 Bft)
07.01.2015 02:00 4,2 C 2,8 C 97 % 1024,3 hPa 0,0 l/m 0 min 0 min 0 W/m 16,7 km/h (3 Bft)
07.01.2015 02:02 4,2 C 2,8 C 97 % 1024,3 hPa 0,0 l/m 0 min 0 min 0 W/m 14,6 km/h (3 Bft)
07.01.2015 02:04 4,2 C 2,8 C 97 % 1024,3 hPa 0,0 l/m 0 min 0 min 0 W/m 14,6 km/h (3 Bft)
07.01.2015 02:06 4,2 C 2,8 C 97 % 1024,3 hPa 0,0 l/m 0 min 0 min 0 W/m 14,6 km/h (3 Bft)
07.01.2015 02:08 4,2 C 2,8 C 97 % 1024,3 hPa 0,0 l/m 0 min 0 min 0 W/m 14,6 km/h (3 Bft)
07.01.2015 02:10 4,2 C 2,8 C 97 % 1024,3 hPa 0,0 l/m 0 min 0 min 0 W/m 18,8 km/h (3 Bft)
07.01.2015 02:12 4,2 C 2,8 C 97 % 1024,3 hPa 0,0 l/m 0 min 0 min 0 W/m 14,6 km/h (3 Bft)
07.01.2015 02:14 4,2 C 2,8 C 97 % 1024,4 hPa 0,0 l/m 0 min 0 min 0 W/m 18,8 km/h (3 Bft)
07.01.2015 02:16 4,2 C 2,8 C 97 % 1024,4 hPa 0,0 l/m 0 min 2 min 0 W/m 14,6 km/h (3 Bft)
07.01.2015 02:18 4,2 C 2,8 C 97 % 1024,4 hPa 0,0 l/m 0 min 2 min 0 W/m 14,6 km/h (3 Bft)
07.01.2015 02:20 4,2 C 2,8 C 97 % 1024,4 hPa 0,0 l/m 0 min 2 min 0 W/m 14,6 km/h (3 Bft)
07.01.2015 02:22 4,2 C 2,8 C 97 % 1024,5 hPa 0,0 l/m 0 min 0 min 0 W/m 16,7 km/h (3 Bft)
07.01.2015 02:24 4,2 C 2,8 C 97 % 1024,6 hPa 0,0 l/m 0 min 0 min 0 W/m 18,8 km/h (3 Bft)
07.01.2015 02:26 4,2 C 2,8 C 97 % 1024,6 hPa 0,0 l/m 0 min 0 min 0 W/m 20,9 km/h (4 Bft)
07.01.2015 02:28 4,2 C 2,8 C 97 % 1024,6 hPa 0,0 l/m 0 min 2 min 0 W/m 16,7 km/h (3 Bft)
07.01.2015 02:30 4,2 C 2,8 C 97 % 1024,6 hPa 0,0 l/m 0 min 2 min 0 W/m 20,9 km/h (4 Bft)
07.01.2015 02:32 4,2 C 2,8 C 97 % 1024,6 hPa 0,0 l/m 0 min 2 min 0 W/m 14,6 km/h (3 Bft)
07.01.2015 02:34 4,2 C 2,8 C 97 % 1024,7 hPa 0,0 l/m 0 min 2 min 0 W/m 16,7 km/h (3 Bft)
07.01.2015 02:36 4,2 C 2,8 C 97 % 1024,7 hPa 0,0 l/m 0 min 0 min 0 W/m 20,9 km/h (4 Bft)
07.01.2015 02:38 4,2 C 2,8 C 97 % 1024,7 hPa 0,0 l/m 0 min 0 min 0 W/m 14,6 km/h (3 Bft)
07.01.2015 02:40 4,2 C 2,8 C 97 % 1024,8 hPa 0,0 l/m 0 min 0 min 0 W/m 14,6 km/h (3 Bft)
07.01.2015 02:42 4,2 C 2,8 C 97 % 1024,8 hPa 0,0 l/m 0 min 0 min 0 W/m 14,6 km/h (3 Bft)
07.01.2015 02:44 4,2 C 2,8 C 97 % 1024,9 hPa 0,0 l/m 0 min 0 min 0 W/m 14,6 km/h (3 Bft)
07.01.2015 02:46 4,2 C 2,8 C 97 % 1024,9 hPa 0,0 l/m 0 min 0 min 0 W/m 12,6 km/h (3 Bft)
07.01.2015 02:48 4,2 C 2,8 C 97 % 1024,9 hPa 0,0 l/m 0 min 0 min 0 W/m 16,7 km/h (3 Bft)
07.01.2015 02:50 4,2 C 2,8 C 97 % 1024,9 hPa 0,0 l/m 0 min 0 min 0 W/m 16,7 km/h (3 Bft)
07.01.2015 02:52 4,2 C 2,8 C 97 % 1024,9 hPa 0,0 l/m 0 min 0 min 0 W/m 16,7 km/h (3 Bft)
07.01.2015 02:54 4,2 C 2,8 C 97 % 1025,0 hPa 0,0 l/m 0 min 0 min 0 W/m 14,6 km/h (3 Bft)
07.01.2015 02:56 4,2 C 2,8 C 97 % 1025,0 hPa 0,0 l/m 0 min 0 min 0 W/m 16,7 km/h (3 Bft)
07.01.2015 02:58 4,2 C 2,8 C 97 % 1025,0 hPa 0,0 l/m 0 min 0 min 0 W/m 16,7 km/h (3 Bft)
07.01.2015 03:00 4,2 C 2,8 C 97 % 1025,1 hPa 0,0 l/m 0 min 0 min 0 W/m 18,8 km/h (3 Bft)
07.01.2015 03:02 4,2 C 2,8 C 97 % 1025,1 hPa 0,0 l/m 0 min 0 min 0 W/m 14,6 km/h (3 Bft)
07.01.2015 03:04 4,2 C 2,8 C 97 % 1025,2 hPa 0,0 l/m 0 min 0 min 0 W/m 10,5 km/h (2 Bft)
07.01.2015 03:06 4,2 C 2,8 C 97 % 1025,2 hPa 0,0 l/m 0 min 0 min 0 W/m 14,6 km/h (3 Bft)
07.01.2015 03:08 4,2 C 2,8 C 97 % 1025,2 hPa 0,0 l/m 0 min 0 min 0 W/m 14,6 km/h (3 Bft)
07.01.2015 03:10 4,2 C 2,8 C 97 % 1025,2 hPa 0,0 l/m 0 min 0 min 0 W/m 16,7 km/h (3 Bft)
07.01.2015 03:12 4,2 C 2,8 C 97 % 1025,3 hPa 0,0 l/m 0 min 0 min 0 W/m 12,6 km/h (3 Bft)
07.01.2015 03:14 4,2 C 2,8 C 97 % 1025,3 hPa 0,0 l/m 0 min 0 min 0 W/m 18,8 km/h (3 Bft)
07.01.2015 03:16 4,2 C 2,8 C 97 % 1025,3 hPa 0,0 l/m 0 min 0 min 0 W/m 16,7 km/h (3 Bft)
07.01.2015 03:18 4,2 C 2,8 C 97 % 1025,3 hPa 0,0 l/m 0 min 0 min 0 W/m 14,6 km/h (3 Bft)
07.01.2015 03:20 4,2 C 2,8 C 97 % 1025,2 hPa 0,0 l/m 0 min 0 min 0 W/m 10,5 km/h (2 Bft)
07.01.2015 03:22 4,2 C 2,8 C 97 % 1025,3 hPa 0,0 l/m 0 min 0 min 0 W/m 12,6 km/h (3 Bft)
07.01.2015 03:24 4,2 C 2,8 C 97 % 1025,3 hPa 0,0 l/m 0 min 0 min 0 W/m 12,6 km/h (3 Bft)
07.01.2015 03:26 4,2 C 2,8 C 97 % 1025,3 hPa 0,0 l/m 0 min 0 min 0 W/m 12,6 km/h (3 Bft)
07.01.2015 03:28 4,2 C 2,8 C 97 % 1025,3 hPa 0,0 l/m 0 min 0 min 0 W/m 10,5 km/h (2 Bft)
07.01.2015 03:30 4,2 C 2,8 C 97 % 1025,3 hPa 0,0 l/m 0 min 0 min 0 W/m 12,6 km/h (3 Bft)
07.01.2015 03:32 4,2 C 2,8 C 97 % 1025,3 hPa 0,0 l/m 0 min 0 min 0 W/m 16,7 km/h (3 Bft)
07.01.2015 03:34 4,2 C 2,8 C 97 % 1025,3 hPa 0,0 l/m 0 min 2 min 0 W/m 14,6 km/h (3 Bft)
07.01.2015 03:36 4,2 C 2,8 C 97 % 1025,4 hPa 0,0 l/m 0 min 0 min 0 W/m 12,6 km/h (3 Bft)
07.01.2015 03:38 4,2 C 2,8 C 97 % 1025,4 hPa 0,0 l/m 0 min 0 min 0 W/m 12,6 km/h (3 Bft)
07.01.2015 03:40 4,2 C 2,8 C 97 % 1025,4 hPa 0,0 l/m 0 min 2 min 0 W/m 10,5 km/h (2 Bft)
07.01.2015 03:42 4,2 C 2,8 C 97 % 1025,4 hPa 0,0 l/m 0 min 0 min 0 W/m 14,6 km/h (3 Bft)
07.01.2015 03:44 4,2 C 2,8 C 97 % 1025,4 hPa 0,0 l/m 0 min 0 min 0 W/m 14,6 km/h (3 Bft)
07.01.2015 03:46 4,2 C 2,8 C 97 % 1025,4 hPa 0,0 l/m 0 min 0 min 0 W/m 14,6 km/h (3 Bft)
07.01.2015 03:48 4,2 C 2,8 C 97 % 1025,4 hPa 0,0 l/m 0 min 0 min 0 W/m 18,8 km/h (3 Bft)
07.01.2015 03:50 4,2 C 2,8 C 97 % 1025,4 hPa 0,0 l/m 0 min 0 min 0 W/m 14,6 km/h (3 Bft)
07.01.2015 03:52 4,2 C 2,8 C 97 % 1025,5 hPa 0,0 l/m 0 min 0 min 0 W/m 14,6 km/h (3 Bft)
07.01.2015 03:54 4,2 C 2,8 C 97 % 1025,4 hPa 0,0 l/m 0 min 0 min 0 W/m 16,7 km/h (3 Bft)
07.01.2015 03:56 4,3 C 2,8 C 97 % 1025,5 hPa 0,0 l/m 0 min 0 min 0 W/m 12,6 km/h (3 Bft)
07.01.2015 03:58 4,2 C 2,8 C 97 % 1025,6 hPa 0,0 l/m 0 min 0 min 0 W/m 10,5 km/h (2 Bft)
07.01.2015 04:00 4,2 C 2,8 C 97 % 1025,6 hPa 0,0 l/m 0 min 0 min 0 W/m 14,6 km/h (3 Bft)
07.01.2015 04:02 4,2 C 2,8 C 97 % 1025,7 hPa 0,0 l/m 0 min 0 min 0 W/m 16,7 km/h (3 Bft)
07.01.2015 04:04 4,2 C 2,8 C 97 % 1025,7 hPa 0,0 l/m 0 min 0 min 0 W/m 14,6 km/h (3 Bft)
07.01.2015 04:06 4,2 C 2,8 C 97 % 1025,9 hPa 0,0 l/m 0 min 0 min 0 W/m 20,9 km/h (4 Bft)
07.01.2015 04:11 4,2 C 2,8 C 97 % 1025,9 hPa 0,0 l/m 0 min 0 min 0 W/m 18,8 km/h (3 Bft)
07.01.2015 04:12 4,3 C 2,8 C 98 % 1025,9 hPa 0,0 l/m 0 min 0 min 0 W/m 10,5 km/h (2 Bft)
07.01.2015 04:14 4,3 C 2,8 C 98 % 1025,9 hPa 0,0 l/m 0 min 0 min 0 W/m 14,6 km/h (3 Bft)
07.01.2015 04:16 4,3 C 2,8 C 98 % 1026,0 hPa 0,0 l/m 0 min 0 min 0 W/m 16,7 km/h (3 Bft)
07.01.2015 04:18 4,3 C 2,8 C 98 % 1026,0 hPa 0,0 l/m 0 min 0 min 0 W/m 12,6 km/h (3 Bft)
07.01.2015 04:20 4,3 C 2,8 C 98 % 1026,0 hPa 0,0 l/m 0 min 0 min 0 W/m 14,6 km/h (3 Bft)
07.01.2015 04:22 4,3 C 2,8 C 98 % 1026,1 hPa 0,0 l/m 0 min 0 min 0 W/m 12,6 km/h (3 Bft)
07.01.2015 04:24 4,3 C 2,8 C 98 % 1026,1 hPa 0,0 l/m 0 min 0 min 0 W/m 10,5 km/h (2 Bft)
07.01.2015 04:26 4,3 C 2,8 C 98 % 1026,1 hPa 0,0 l/m 0 min 0 min 0 W/m 10,5 km/h (2 Bft)
07.01.2015 04:28 4,3 C 2,8 C 98 % 1026,1 hPa 0,0 l/m 0 min 0 min 0 W/m 14,6 km/h (3 Bft)
07.01.2015 04:30 4,3 C 2,8 C 98 % 1026,2 hPa 0,0 l/m 0 min 0 min 0 W/m 16,7 km/h (3 Bft)
07.01.2015 04:32 4,3 C 2,8 C 98 % 1026,2 hPa 0,0 l/m 0 min 0 min 0 W/m 20,9 km/h (4 Bft)
07.01.2015 04:34 4,3 C 2,8 C 98 % 1026,1 hPa 0,0 l/m 0 min 0 min 0 W/m 12,6 km/h (3 Bft)
07.01.2015 04:36 4,3 C 2,8 C 98 % 1026,1 hPa 0,0 l/m 0 min 0 min 0 W/m 12,6 km/h (3 Bft)
07.01.2015 04:38 4,3 C 2,8 C 98 % 1026,1 hPa 0,0 l/m 0 min 0 min 0 W/m 16,7 km/h (3 Bft)
07.01.2015 04:40 4,3 C 2,8 C 98 % 1026,0 hPa 0,0 l/m 0 min 0 min 0 W/m 14,6 km/h (3 Bft)
07.01.2015 04:42 4,3 C 2,8 C 98 % 1026,1 hPa 0,0 l/m 0 min 0 min 0 W/m 12,6 km/h (3 Bft)
07.01.2015 04:44 4,2 C 2,8 C 98 % 1026,0 hPa 0,0 l/m 0 min 0 min 0 W/m 12,6 km/h (3 Bft)
07.01.2015 04:46 4,2 C 2,8 C 98 % 1026,0 hPa 0,0 l/m 0 min 0 min 0 W/m 14,6 km/h (3 Bft)
07.01.2015 04:48 4,2 C 2,8 C 98 % 1026,1 hPa 0,0 l/m 0 min 0 min 0 W/m 18,8 km/h (3 Bft)
07.01.2015 04:50 4,2 C 2,8 C 98 % 1026,1 hPa 0,0 l/m 0 min 0 min 0 W/m 12,6 km/h (3 Bft)
07.01.2015 04:52 4,2 C 2,8 C 98 % 1026,1 hPa 0,0 l/m 0 min 0 min 0 W/m 25,1 km/h (4 Bft)
07.01.2015 04:54 4,2 C 2,8 C 98 % 1026,2 hPa 0,0 l/m 0 min 0 min 0 W/m 12,6 km/h (3 Bft)
07.01.2015 04:56 4,2 C 2,8 C 98 % 1026,1 hPa 0,0 l/m 0 min 0 min 0 W/m 16,7 km/h (3 Bft)
07.01.2015 04:58 4,2 C 2,8 C 98 % 1026,1 hPa 0,0 l/m 0 min 0 min 0 W/m 12,6 km/h (3 Bft)
07.01.2015 05:00 4,2 C 2,2 C 98 % 1026,2 hPa 0,0 l/m 0 min 0 min 0 W/m 16,7 km/h (3 Bft)
07.01.2015 05:02 4,2 C 2,2 C 98 % 1026,3 hPa 0,0 l/m 0 min 0 min 0 W/m 16,7 km/h (3 Bft)
07.01.2015 05:04 4,2 C 2,2 C 98 % 1026,3 hPa 0,0 l/m 0 min 0 min 0 W/m 16,7 km/h (3 Bft)
07.01.2015 05:06 4,2 C 2,2 C 98 % 1026,3 hPa 0,0 l/m 0 min 0 min 0 W/m 14,6 km/h (3 Bft)
07.01.2015 05:08 4,1 C 2,2 C 98 % 1026,4 hPa 0,0 l/m 0 min 0 min 0 W/m 16,7 km/h (3 Bft)
07.01.2015 05:10 4,1 C 2,2 C 98 % 1026,3 hPa 0,0 l/m 0 min 0 min 0 W/m 18,8 km/h (3 Bft)
07.01.2015 05:12 4,1 C 2,2 C 98 % 1026,3 hPa 0,0 l/m 0 min 0 min 0 W/m 12,6 km/h (3 Bft)
07.01.2015 05:14 4,1 C 2,2 C 98 % 1026,4 hPa 0,0 l/m 0 min 0 min 0 W/m 12,6 km/h (3 Bft)
07.01.2015 05:16 4,1 C 2,2 C 98 % 1026,4 hPa 0,0 l/m 0 min 0 min 0 W/m 12,6 km/h (3 Bft)
07.01.2015 05:18 4,1 C 2,2 C 98 % 1026,4 hPa 0,0 l/m 0 min 0 min 0 W/m 16,7 km/h (3 Bft)
07.01.2015 05:20 4,1 C 2,2 C 98 % 1026,4 hPa 0,0 l/m 0 min 0 min 0 W/m 16,7 km/h (3 Bft)
07.01.2015 05:22 4,0 C 2,2 C 98 % 1026,4 hPa 0,0 l/m 0 min 0 min 0 W/m 10,5 km/h (2 Bft)
07.01.2015 05:24 4,0 C 2,2 C 98 % 1026,4 hPa 0,0 l/m 0 min 0 min 0 W/m 10,5 km/h (2 Bft)
07.01.2015 05:26 4,0 C 2,2 C 98 % 1026,3 hPa 0,0 l/m 0 min 0 min 0 W/m 12,6 km/h (3 Bft)
07.01.2015 05:28 4,0 C 2,2 C 98 % 1026,3 hPa 0,0 l/m 0 min 0 min 0 W/m 12,6 km/h (3 Bft)
07.01.2015 05:30 3,9 C 2,2 C 98 % 1026,3 hPa 0,0 l/m 0 min 0 min 0 W/m 8,4 km/h (2 Bft)
07.01.2015 05:32 3,9 C 2,2 C 98 % 1026,3 hPa 0,0 l/m 0 min 0 min 0 W/m 8,4 km/h (2 Bft)
07.01.2015 05:34 3,9 C 2,2 C 98 % 1026,2 hPa 0,0 l/m 0 min 0 min 0 W/m 16,7 km/h (3 Bft)
07.01.2015 05:36 3,9 C 1,7 C 98 % 1026,3 hPa 0,0 l/m 0 min 0 min 0 W/m 14,6 km/h (3 Bft)
07.01.2015 05:38 3,9 C 1,7 C 98 % 1026,3 hPa 0,0 l/m 0 min 0 min 0 W/m 12,6 km/h (3 Bft)
07.01.2015 05:40 3,8 C 1,7 C 98 % 1026,3 hPa 0,0 l/m 0 min 0 min 0 W/m 14,6 km/h (3 Bft)
07.01.2015 05:42 3,8 C 1,7 C 98 % 1026,2 hPa 0,0 l/m 0 min 0 min 0 W/m 10,5 km/h (2 Bft)
07.01.2015 05:44 3,8 C 1,7 C 98 % 1026,2 hPa 0,0 l/m 0 min 0 min 0 W/m 12,6 km/h (3 Bft)
07.01.2015 05:46 3,8 C 1,7 C 98 % 1026,2 hPa 0,0 l/m 0 min 0 min 0 W/m 12,6 km/h (3 Bft)
07.01.2015 05:48 3,7 C 1,7 C 98 % 1026,2 hPa 0,0 l/m 0 min 0 min 0 W/m 12,6 km/h (3 Bft)
07.01.2015 05:50 3,7 C 1,7 C 98 % 1026,2 hPa 0,0 l/m 0 min 0 min 0 W/m 12,6 km/h (3 Bft)
07.01.2015 05:52 3,7 C 1,7 C 98 % 1026,2 hPa 0,0 l/m 0 min 0 min 0 W/m 10,5 km/h (2 Bft)
07.01.2015 05:54 3,7 C 1,7 C 98 % 1026,1 hPa 0,0 l/m 0 min 0 min 0 W/m 10,5 km/h (2 Bft)
07.01.2015 05:56 3,7 C 1,7 C 98 % 1026,2 hPa 0,0 l/m 0 min 0 min 0 W/m 12,6 km/h (3 Bft)
07.01.2015 05:58 3,6 C 1,7 C 98 % 1026,2 hPa 0,0 l/m 0 min 0 min 0 W/m 12,6 km/h (3 Bft)
07.01.2015 06:00 3,6 C 1,7 C 97 % 1026,2 hPa 0,0 l/m 0 min 0 min 0 W/m 12,6 km/h (3 Bft)
07.01.2015 06:02 3,6 C 2,2 C 97 % 1026,2 hPa 0,0 l/m 0 min 0 min 0 W/m 16,7 km/h (3 Bft)
07.01.2015 06:06 3,6 C 2,2 C 97 % 1026,2 hPa 0,0 l/m 0 min 0 min 0 W/m 10,5 km/h (2 Bft)
07.01.2015 06:08 3,6 C 1,7 C 97 % 1026,1 hPa 0,0 l/m 0 min 0 min 0 W/m 6,3 km/h (2 Bft)
07.01.2015 06:10 3,6 C 1,7 C 97 % 1026,1 hPa 0,0 l/m 0 min 0 min 0 W/m 10,5 km/h (2 Bft)
07.01.2015 06:12 3,6 C 2,2 C 97 % 1026,1 hPa 0,0 l/m 0 min 0 min 0 W/m 14,6 km/h (3 Bft)
07.01.2015 06:14 3,6 C 2,2 C 97 % 1026,2 hPa 0,0 l/m 0 min 0 min 0 W/m 12,6 km/h (3 Bft)
07.01.2015 06:16 3,5 C 2,2 C 97 % 1026,2 hPa 0,0 l/m 0 min 0 min 0 W/m 12,6 km/h (3 Bft)
07.01.2015 06:18 3,5 C 2,2 C 97 % 1026,2 hPa 0,0 l/m 0 min 0 min 0 W/m 10,5 km/h (2 Bft)
07.01.2015 06:20 3,5 C 2,2 C 97 % 1026,2 hPa 0,0 l/m 0 min 0 min 0 W/m 14,6 km/h (3 Bft)
07.01.2015 06:22 3,5 C 2,2 C 97 % 1026,3 hPa 0,0 l/m 0 min 0 min 0 W/m 12,6 km/h (3 Bft)
07.01.2015 06:24 3,5 C 2,2 C 97 % 1026,4 hPa 0,0 l/m 0 min 0 min 0 W/m 12,6 km/h (3 Bft)
07.01.2015 06:26 3,5 C 2,2 C 97 % 1026,4 hPa 0,0 l/m 0 min 0 min 0 W/m 12,6 km/h (3 Bft)
07.01.2015 06:28 3,5 C 2,2 C 97 % 1026,5 hPa 0,0 l/m 0 min 0 min 0 W/m 12,6 km/h (3 Bft)
07.01.2015 06:30 3,5 C 2,2 C 97 % 1026,4 hPa 0,0 l/m 0 min 0 min 0 W/m 10,5 km/h (2 Bft)
07.01.2015 06:32 3,5 C 2,2 C 97 % 1026,5 hPa 0,0 l/m 0 min 0 min 0 W/m 14,6 km/h (3 Bft)
07.01.2015 06:34 3,5 C 2,2 C 97 % 1026,5 hPa 0,0 l/m 0 min 0 min 0 W/m 16,7 km/h (3 Bft)
07.01.2015 06:36 3,5 C 2,2 C 97 % 1026,6 hPa 0,0 l/m 0 min 0 min 0 W/m 12,6 km/h (3 Bft)
07.01.2015 06:38 3,5 C 2,2 C 97 % 1026,6 hPa 0,0 l/m 0 min 0 min 0 W/m 14,6 km/h (3 Bft)
07.01.2015 06:40 3,6 C 2,2 C 97 % 1026,6 hPa 0,0 l/m 0 min 0 min 0 W/m 14,6 km/h (3 Bft)
07.01.2015 06:42 3,5 C 2,2 C 97 % 1026,6 hPa 0,0 l/m 0 min 0 min 0 W/m 12,6 km/h (3 Bft)
07.01.2015 06:44 3,5 C 2,2 C 97 % 1026,7 hPa 0,0 l/m 0 min 0 min 0 W/m 14,6 km/h (3 Bft)
07.01.2015 06:46 3,5 C 2,2 C 97 % 1026,7 hPa 0,0 l/m 0 min 0 min 0 W/m 10,5 km/h (2 Bft)
07.01.2015 06:48 3,6 C 2,2 C 98 % 1026,7 hPa 0,0 l/m 0 min 0 min 0 W/m 12,6 km/h (3 Bft)
07.01.2015 06:50 3,5 C 2,2 C 98 % 1026,7 hPa 0,0 l/m 0 min 0 min 0 W/m 12,6 km/h (3 Bft)
07.01.2015 06:52 3,5 C 2,2 C 98 % 1026,6 hPa 0,0 l/m 0 min 0 min 0 W/m 12,6 km/h (3 Bft)
07.01.2015 06:54 3,5 C 2,2 C 98 % 1026,7 hPa 0,0 l/m 0 min 0 min 0 W/m 12,6 km/h (3 Bft)
07.01.2015 06:56 3,5 C 2,2 C 98 % 1026,7 hPa 0,0 l/m 0 min 0 min 0 W/m 14,6 km/h (3 Bft)
07.01.2015 06:58 3,5 C 2,2 C 98 % 1026,8 hPa 0,0 l/m 0 min 0 min 0 W/m 14,6 km/h (3 Bft)
07.01.2015 07:00 3,5 C 2,2 C 98 % 1026,8 hPa 0,0 l/m 0 min 0 min 0 W/m 14,6 km/h (3 Bft)
07.01.2015 07:02 3,5 C 2,2 C 98 % 1026,8 hPa 0,0 l/m 0 min 0 min 0 W/m 14,6 km/h (3 Bft)
07.01.2015 07:04 3,5 C 2,2 C 98 % 1026,8 hPa 0,0 l/m 0 min 0 min 0 W/m 14,6 km/h (3 Bft)
07.01.2015 07:06 3,5 C 2,2 C 98 % 1026,8 hPa 0,0 l/m 0 min 0 min 0 W/m 12,6 km/h (3 Bft)
07.01.2015 07:08 3,4 C 2,2 C 98 % 1026,9 hPa 0,0 l/m 0 min 0 min 0 W/m 14,6 km/h (3 Bft)
07.01.2015 07:10 3,4 C 2,2 C 98 % 1026,9 hPa 0,0 l/m 0 min 0 min 0 W/m 10,5 km/h (2 Bft)
07.01.2015 07:12 3,4 C 2,2 C 98 % 1026,9 hPa 0,0 l/m 0 min 0 min 0 W/m 10,5 km/h (2 Bft)
07.01.2015 07:14 3,4 C 2,2 C 98 % 1026,9 hPa 0,0 l/m 0 min 0 min 0 W/m 12,6 km/h (3 Bft)
07.01.2015 07:16 3,4 C 2,2 C 98 % 1026,9 hPa 0,0 l/m 0 min 0 min 0 W/m 16,7 km/h (3 Bft)
07.01.2015 07:18 3,4 C 2,2 C 98 % 1026,9 hPa 0,0 l/m 0 min 0 min 0 W/m 12,6 km/h (3 Bft)
07.01.2015 07:20 3,4 C 2,2 C 98 % 1027,0 hPa 0,0 l/m 0 min 0 min 0 W/m 8,4 km/h (2 Bft)
07.01.2015 07:22 3,4 C 2,2 C 98 % 1027,0 hPa 0,0 l/m 0 min 0 min 0 W/m 10,5 km/h (2 Bft)
07.01.2015 07:24 3,4 C 2,2 C 98 % 1026,9 hPa 0,0 l/m 0 min 0 min 0 W/m 12,6 km/h (3 Bft)
07.01.2015 07:26 3,4 C 2,2 C 98 % 1027,0 hPa 0,0 l/m 0 min 0 min 0 W/m 14,6 km/h (3 Bft)
07.01.2015 07:28 3,4 C 1,7 C 98 % 1026,9 hPa 0,0 l/m 0 min 0 min 0 W/m 10,5 km/h (2 Bft)
07.01.2015 07:30 3,4 C 1,7 C 98 % 1027,0 hPa 0,0 l/m 0 min 0 min 0 W/m 10,5 km/h (2 Bft)
07.01.2015 07:32 3,4 C 1,7 C 98 % 1027,1 hPa 0,0 l/m 0 min 0 min 0 W/m 10,5 km/h (2 Bft)
07.01.2015 07:34 3,3 C 1,7 C 98 % 1027,1 hPa 0,0 l/m 0 min 0 min 0 W/m 14,6 km/h (3 Bft)
07.01.2015 07:36 3,3 C 1,7 C 97 % 1027,3 hPa 0,0 l/m 0 min 0 min 0 W/m 16,7 km/h (3 Bft)
07.01.2015 07:38 3,3 C 1,7 C 97 % 1027,2 hPa 0,0 l/m 0 min 0 min 0 W/m 16,7 km/h (3 Bft)
07.01.2015 07:40 3,3 C 1,7 C 97 % 1027,3 hPa 0,0 l/m 0 min 0 min 0 W/m 16,7 km/h (3 Bft)
07.01.2015 07:42 3,3 C 1,7 C 97 % 1027,3 hPa 0,0 l/m 0 min 0 min 0 W/m 20,9 km/h (4 Bft)
07.01.2015 07:44 3,2 C 1,7 C 97 % 1027,4 hPa 0,0 l/m 0 min 0 min 0 W/m 18,8 km/h (3 Bft)
07.01.2015 07:46 3,2 C 1,7 C 97 % 1027,4 hPa 0,0 l/m 0 min 0 min 0 W/m 14,6 km/h (3 Bft)
07.01.2015 07:48 3,2 C 1,7 C 97 % 1027,3 hPa 0,0 l/m 0 min 0 min 0 W/m 23,0 km/h (4 Bft)
07.01.2015 07:50 3,2 C 2,2 C 97 % 1027,4 hPa 0,0 l/m 0 min 0 min 0 W/m 18,8 km/h (3 Bft)
07.01.2015 07:52 3,2 C 2,2 C 97 % 1027,4 hPa 0,0 l/m 0 min 0 min 0 W/m 16,7 km/h (3 Bft)
07.01.2015 07:54 3,2 C 2,2 C 97 % 1027,5 hPa 0,0 l/m 0 min 0 min 0 W/m 14,6 km/h (3 Bft)
07.01.2015 07:56 3,2 C 2,2 C 98 % 1027,5 hPa 0,0 l/m 0 min 0 min 0 W/m 18,8 km/h (3 Bft)
07.01.2015 07:58 3,2 C 2,2 C 98 % 1027,5 hPa 0,0 l/m 0 min 0 min 0 W/m 14,6 km/h (3 Bft)
07.01.2015 08:00 3,2 C 1,7 C 98 % 1027,5 hPa 0,0 l/m 0 min 0 min 0 W/m 12,6 km/h (3 Bft)
07.01.2015 08:02 3,2 C 1,7 C 98 % 1027,6 hPa 0,0 l/m 0 min 0 min 0 W/m 18,8 km/h (3 Bft)
07.01.2015 08:04 3,2 C 1,7 C 98 % 1027,6 hPa 0,0 l/m 0 min 0 min 0 W/m 18,8 km/h (3 Bft)
07.01.2015 08:06 3,2 C 1,7 C 98 % 1027,6 hPa 0,0 l/m 0 min 0 min 0 W/m 14,6 km/h (3 Bft)
07.01.2015 08:08 3,2 C 1,7 C 98 % 1027,7 hPa 0,0 l/m 0 min 0 min 0 W/m 14,6 km/h (3 Bft)
07.01.2015 08:10 3,2 C 1,7 C 98 % 1027,7 hPa 0,0 l/m 0 min 0 min 0 W/m 20,9 km/h (4 Bft)
07.01.2015 08:12 3,2 C 1,7 C 98 % 1027,7 hPa 0,0 l/m 0 min 0 min 0 W/m 20,9 km/h (4 Bft)
07.01.2015 08:14 3,2 C 1,7 C 98 % 1027,8 hPa 0,0 l/m 0 min 0 min 0 W/m 12,6 km/h (3 Bft)
07.01.2015 08:16 3,2 C 1,7 C 98 % 1027,9 hPa 0,0 l/m 0 min 0 min 0 W/m 12,6 km/h (3 Bft)
07.01.2015 08:18 3,2 C 1,7 C 98 % 1027,9 hPa 0,0 l/m 0 min 0 min 0 W/m 12,6 km/h (3 Bft)
07.01.2015 08:20 3,2 C 1,7 C 98 % 1027,9 hPa 0,0 l/m 0 min 0 min 0 W/m 12,6 km/h (3 Bft)
07.01.2015 08:22 3,2 C 1,7 C 98 % 1027,9 hPa 0,0 l/m 0 min 0 min 0 W/m 14,6 km/h (3 Bft)
07.01.2015 08:24 3,2 C 1,7 C 98 % 1027,9 hPa 0,0 l/m 0 min 0 min 0 W/m 12,6 km/h (3 Bft)
07.01.2015 08:26 3,2 C 1,7 C 98 % 1027,9 hPa 0,0 l/m 0 min 0 min 0 W/m 14,6 km/h (3 Bft)
07.01.2015 08:28 3,2 C 1,7 C 98 % 1028,0 hPa 0,0 l/m 0 min 0 min 1 W/m 14,6 km/h (3 Bft)
07.01.2015 08:30 3,1 C 1,7 C 98 % 1028,0 hPa 0,0 l/m 0 min 0 min 5 W/m 14,6 km/h (3 Bft)
07.01.2015 08:32 3,1 C 1,7 C 98 % 1028,0 hPa 0,0 l/m 0 min 0 min 5 W/m 8,4 km/h (2 Bft)
07.01.2015 08:34 3,1 C 1,7 C 98 % 1028,0 hPa 0,0 l/m 0 min 0 min 7 W/m 12,6 km/h (3 Bft)
07.01.2015 08:36 3,1 C 1,1 C 98 % 1028,0 hPa 0,0 l/m 0 min 0 min 7 W/m 10,5 km/h (2 Bft)
07.01.2015 08:38 3,1 C 1,1 C 98 % 1028,0 hPa 0,0 l/m 0 min 0 min 8 W/m 10,5 km/h (2 Bft)
07.01.2015 08:40 3,1 C 1,1 C 98 % 1028,0 hPa 0,0 l/m 0 min 0 min 9 W/m 8,4 km/h (2 Bft)
07.01.2015 08:42 3,0 C 1,1 C 98 % 1028,1 hPa 0,0 l/m 0 min 0 min 10 W/m 8,4 km/h (2 Bft)
07.01.2015 08:44 3,0 C 1,1 C 97 % 1028,1 hPa 0,0 l/m 0 min 0 min 11 W/m 6,3 km/h (2 Bft)
07.01.2015 08:46 2,9 C 1,1 C 97 % 1028,1 hPa 0,0 l/m 0 min 0 min 12 W/m 6,3 km/h (2 Bft)
07.01.2015 08:48 2,9 C 1,1 C 97 % 1028,1 hPa 0,0 l/m 0 min 0 min 13 W/m 8,4 km/h (2 Bft)
07.01.2015 08:50 2,9 C 0,6 C 97 % 1028,2 hPa 0,0 l/m 0 min 0 min 14 W/m 6,3 km/h (2 Bft)
07.01.2015 08:52 2,9 C 1,1 C 97 % 1028,1 hPa 0,0 l/m 2 min 0 min 16 W/m 10,5 km/h (2 Bft)
07.01.2015 08:54 2,8 C 1,1 C 97 % 1028,1 hPa 0,0 l/m 2 min 0 min 17 W/m 6,3 km/h (2 Bft)
07.01.2015 08:56 2,8 C 1,1 C 98 % 1028,1 hPa 0,0 l/m 2 min 0 min 19 W/m 6,3 km/h (2 Bft)
07.01.2015 08:58 2,8 C 1,1 C 98 % 1028,1 hPa 0,0 l/m 2 min 0 min 21 W/m 8,4 km/h (2 Bft)
07.01.2015 09:00 2,7 C 1,1 C 98 % 1028,2 hPa 0,0 l/m 2 min 0 min 23 W/m 8,4 km/h (2 Bft)
07.01.2015 09:02 2,7 C 1,1 C 98 % 1028,2 hPa 0,0 l/m 2 min 0 min 26 W/m 6,3 km/h (2 Bft)
07.01.2015 09:04 2,7 C 1,1 C 98 % 1028,1 hPa 0,0 l/m 2 min 0 min 30 W/m 10,5 km/h (2 Bft)
07.01.2015 09:06 2,7 C 1,1 C 98 % 1028,1 hPa 0,0 l/m 2 min 0 min 32 W/m 6,3 km/h (2 Bft)
07.01.2015 09:08 2,6 C 1,1 C 97 % 1028,1 hPa 0,0 l/m 2 min 0 min 34 W/m 8,4 km/h (2 Bft)
07.01.2015 09:10 2,6 C 1,1 C 97 % 1028,1 hPa 0,0 l/m 2 min 0 min 36 W/m 10,5 km/h (2 Bft)
07.01.2015 09:12 2,6 C 1,1 C 97 % 1028,2 hPa 0,0 l/m 2 min 0 min 39 W/m 10,5 km/h (2 Bft)
07.01.2015 09:14 2,6 C 1,1 C 97 % 1028,2 hPa 0,0 l/m 2 min 0 min 41 W/m 12,6 km/h (3 Bft)
07.01.2015 09:16 2,5 C 1,1 C 97 % 1028,2 hPa 0,0 l/m 2 min 0 min 43 W/m 10,5 km/h (2 Bft)
07.01.2015 09:18 2,5 C 1,1 C 97 % 1028,2 hPa 0,0 l/m 2 min 0 min 45 W/m 12,6 km/h (3 Bft)
07.01.2015 09:20 2,5 C 1,1 C 97 % 1028,2 hPa 0,0 l/m 2 min 0 min 48 W/m 8,4 km/h (2 Bft)
07.01.2015 09:22 2,5 C 1,1 C 97 % 1028,2 hPa 0,0 l/m 2 min 0 min 52 W/m 10,5 km/h (2 Bft)
07.01.2015 09:24 2,4 C 1,1 C 97 % 1028,2 hPa 0,0 l/m 2 min 0 min 54 W/m 10,5 km/h (2 Bft)
07.01.2015 09:26 2,4 C 1,1 C 97 % 1028,3 hPa 0,0 l/m 2 min 0 min 57 W/m 10,5 km/h (2 Bft)
07.01.2015 09:28 2,4 C 1,1 C 97 % 1028,3 hPa 0,0 l/m 2 min 0 min 59 W/m 6,3 km/h (2 Bft)
07.01.2015 09:30 2,4 C 1,1 C 97 % 1028,3 hPa 0,0 l/m 2 min 0 min 61 W/m 12,6 km/h (3 Bft)
07.01.2015 09:32 2,4 C 1,1 C 98 % 1028,2 hPa 0,0 l/m 2 min 0 min 63 W/m 8,4 km/h (2 Bft)
07.01.2015 09:34 2,4 C 1,1 C 98 % 1028,2 hPa 0,0 l/m 2 min 0 min 65 W/m 6,3 km/h (2 Bft)
07.01.2015 09:36 2,4 C 1,1 C 98 % 1028,1 hPa 0,0 l/m 2 min 0 min 67 W/m 10,5 km/h (2 Bft)
07.01.2015 09:38 2,4 C 1,1 C 98 % 1028,2 hPa 0,0 l/m 2 min 0 min 69 W/m 8,4 km/h (2 Bft)
07.01.2015 09:40 2,4 C 1,1 C 98 % 1028,2 hPa 0,0 l/m 2 min 0 min 69 W/m 12,6 km/h (3 Bft)
07.01.2015 09:42 2,4 C 1,1 C 98 % 1028,3 hPa 0,0 l/m 2 min 0 min 71 W/m 10,5 km/h (2 Bft)
07.01.2015 09:44 2,4 C 1,1 C 98 % 1028,2 hPa 0,0 l/m 2 min 0 min 72 W/m 8,4 km/h (2 Bft)
07.01.2015 09:46 2,4 C 1,1 C 98 % 1028,3 hPa 0,0 l/m 2 min 0 min 76 W/m 18,8 km/h (3 Bft)
07.01.2015 09:48 2,4 C 1,1 C 98 % 1028,3 hPa 0,0 l/m 2 min 0 min 77 W/m 16,7 km/h (3 Bft)
07.01.2015 09:50 2,4 C 1,1 C 98 % 1028,4 hPa 0,0 l/m 2 min 0 min 81 W/m 12,6 km/h (3 Bft)
07.01.2015 09:52 2,4 C 1,1 C 98 % 1028,4 hPa 0,0 l/m 2 min 0 min 82 W/m 12,6 km/h (3 Bft)
07.01.2015 09:54 2,4 C 1,1 C 98 % 1028,4 hPa 0,0 l/m 2 min 0 min 78 W/m 8,4 km/h (2 Bft)
07.01.2015 09:56 2,4 C 1,1 C 97 % 1028,4 hPa 0,0 l/m 2 min 0 min 84 W/m 8,4 km/h (2 Bft)
07.01.2015 09:58 2,4 C 1,1 C 97 % 1028,5 hPa 0,0 l/m 2 min 0 min 83 W/m 10,5 km/h (2 Bft)
07.01.2015 10:00 2,5 C 1,1 C 97 % 1028,5 hPa 0,0 l/m 2 min 0 min 81 W/m 8,4 km/h (2 Bft)
07.01.2015 10:02 2,5 C 1,1 C 97 % 1028,5 hPa 0,0 l/m 0 min 0 min 73 W/m 12,6 km/h (3 Bft)
07.01.2015 10:04 2,5 C 1,1 C 97 % 1028,4 hPa 0,0 l/m 2 min 0 min 94 W/m 10,5 km/h (2 Bft)
07.01.2015 10:06 2,5 C 1,1 C 97 % 1028,4 hPa 0,0 l/m 2 min 0 min 102 W/m 10,5 km/h (2 Bft)
07.01.2015 10:08 2,5 C 1,7 C 97 % 1028,5 hPa 0,0 l/m 2 min 0 min 102 W/m 10,5 km/h (2 Bft)
07.01.2015 10:10 2,6 C 1,7 C 97 % 1028,4 hPa 0,0 l/m 2 min 0 min 108 W/m 10,5 km/h (2 Bft)
07.01.2015 10:12 2,6 C 1,7 C 97 % 1028,5 hPa 0,0 l/m 2 min 0 min 102 W/m 12,6 km/h (3 Bft)
07.01.2015 10:14 2,6 C 1,7 C 97 % 1028,5 hPa 0,0 l/m 2 min 0 min 113 W/m 8,4 km/h (2 Bft)
07.01.2015 10:16 2,6 C 1,7 C 97 % 1028,4 hPa 0,0 l/m 2 min 0 min 117 W/m 6,3 km/h (2 Bft)
07.01.2015 10:18 2,6 C 1,7 C 97 % 1028,5 hPa 0,0 l/m 2 min 0 min 118 W/m 8,4 km/h (2 Bft)
07.01.2015 10:20 2,6 C 1,7 C 97 % 1028,5 hPa 0,0 l/m 2 min 0 min 123 W/m 10,5 km/h (2 Bft)
07.01.2015 10:22 2,6 C 1,7 C 97 % 1028,4 hPa 0,0 l/m 2 min 0 min 125 W/m 12,6 km/h (3 Bft)
07.01.2015 10:24 2,7 C 1,7 C 98 % 1028,5 hPa 0,0 l/m 2 min 0 min 126 W/m 12,6 km/h (3 Bft)
07.01.2015 10:26 2,7 C 1,7 C 98 % 1028,5 hPa 0,0 l/m 2 min 0 min 123 W/m 10,5 km/h (2 Bft)
07.01.2015 10:28 2,7 C 1,7 C 98 % 1028,4 hPa 0,0 l/m 2 min 0 min 134 W/m 14,6 km/h (3 Bft)
07.01.2015 10:30 2,7 C 1,7 C 98 % 1028,3 hPa 0,0 l/m 2 min 0 min 135 W/m 16,7 km/h (3 Bft)
07.01.2015 10:32 2,8 C 1,7 C 98 % 1028,4 hPa 0,0 l/m 2 min 0 min 136 W/m 14,6 km/h (3 Bft)
07.01.2015 10:34 2,8 C 1,7 C 98 % 1028,4 hPa 0,0 l/m 2 min 0 min 140 W/m 14,6 km/h (3 Bft)
07.01.2015 10:36 2,8 C 2,2 C 98 % 1028,4 hPa 0,0 l/m 2 min 0 min 143 W/m 14,6 km/h (3 Bft)
07.01.2015 10:38 2,9 C 2,2 C 98 % 1028,5 hPa 0,0 l/m 2 min 0 min 149 W/m 10,5 km/h (2 Bft)
07.01.2015 10:40 2,9 C 2,2 C 98 % 1028,5 hPa 0,0 l/m 2 min 0 min 156 W/m 12,6 km/h (3 Bft)
07.01.2015 10:42 2,9 C 2,2 C 98 % 1028,5 hPa 0,0 l/m 2 min 0 min 156 W/m 18,8 km/h (3 Bft)
07.01.2015 10:44 3,0 C 2,2 C 98 % 1028,5 hPa 0,0 l/m 2 min 0 min 161 W/m 16,7 km/h (3 Bft)
07.01.2015 10:46 3,1 C 2,2 C 98 % 1028,5 hPa 0,0 l/m 2 min 0 min 158 W/m 14,6 km/h (3 Bft)
07.01.2015 10:48 3,1 C 2,2 C 98 % 1028,6 hPa 0,0 l/m 2 min 0 min 167 W/m 18,8 km/h (3 Bft)
07.01.2015 10:50 3,2 C 2,2 C 98 % 1028,6 hPa 0,0 l/m 2 min 0 min 169 W/m 18,8 km/h (3 Bft)
07.01.2015 10:52 3,2 C 2,2 C 98 % 1028,5 hPa 0,0 l/m 2 min 0 min 175 W/m 20,9 km/h (4 Bft)
07.01.2015 10:54 3,2 C 2,2 C 98 % 1028,5 hPa 0,0 l/m 2 min 0 min 173 W/m 14,6 km/h (3 Bft)
07.01.2015 10:56 3,3 C 2,2 C 98 % 1028,6 hPa 0,0 l/m 2 min 0 min 173 W/m 18,8 km/h (3 Bft)
07.01.2015 10:58 3,3 C 2,2 C 98 % 1028,6 hPa 0,0 l/m 2 min 0 min 177 W/m 16,7 km/h (3 Bft)
07.01.2015 11:00 3,4 C 2,2 C 98 % 1028,5 hPa 0,0 l/m 2 min 0 min 181 W/m 14,6 km/h (3 Bft)
07.01.2015 11:02 3,4 C 2,2 C 98 % 1028,5 hPa 0,0 l/m 2 min 0 min 184 W/m 16,7 km/h (3 Bft)
07.01.2015 11:04 3,5 C 2,8 C 98 % 1028,5 hPa 0,0 l/m 2 min 0 min 189 W/m 16,7 km/h (3 Bft)
07.01.2015 11:06 3,6 C 2,8 C 98 % 1028,5 hPa 0,0 l/m 2 min 0 min 189 W/m 18,8 km/h (3 Bft)
07.01.2015 11:08 3,6 C 2,8 C 98 % 1028,5 hPa 0,0 l/m 2 min 0 min 194 W/m 16,7 km/h (3 Bft)
07.01.2015 11:10 3,7 C 2,8 C 98 % 1028,5 hPa 0,0 l/m 2 min 0 min 197 W/m 18,8 km/h (3 Bft)
07.01.2015 11:12 3,7 C 2,8 C 98 % 1028,5 hPa 0,0 l/m 2 min 0 min 199 W/m 18,8 km/h (3 Bft)
07.01.2015 11:14 3,8 C 2,8 C 98 % 1028,5 hPa 0,0 l/m 2 min 0 min 200 W/m 14,6 km/h (3 Bft)
07.01.2015 11:16 3,8 C 2,8 C 98 % 1028,5 hPa 0,0 l/m 2 min 0 min 197 W/m 8,4 km/h (2 Bft)
07.01.2015 11:18 3,9 C 2,8 C 98 % 1028,5 hPa 0,0 l/m 2 min 0 min 201 W/m 14,6 km/h (3 Bft)
07.01.2015 11:20 3,9 C 2,8 C 98 % 1028,4 hPa 0,0 l/m 2 min 0 min 211 W/m 18,8 km/h (3 Bft)
07.01.2015 11:22 4,0 C 2,8 C 98 % 1028,3 hPa 0,0 l/m 2 min 0 min 218 W/m 18,8 km/h (3 Bft)
07.01.2015 11:24 4,1 C 2,8 C 98 % 1028,3 hPa 0,0 l/m 2 min 0 min 216 W/m 18,8 km/h (3 Bft)
07.01.2015 11:26 4,2 C 2,8 C 98 % 1028,2 hPa 0,0 l/m 2 min 0 min 213 W/m 14,6 km/h (3 Bft)
07.01.2015 11:28 4,2 C 2,8 C 98 % 1028,3 hPa 0,0 l/m 2 min 0 min 209 W/m 20,9 km/h (4 Bft)
07.01.2015 11:30 4,3 C 2,8 C 98 % 1028,2 hPa 0,0 l/m 2 min 0 min 209 W/m 18,8 km/h (3 Bft)
07.01.2015 11:32 4,4 C 2,8 C 98 % 1028,3 hPa 0,0 l/m 2 min 0 min 199 W/m 16,7 km/h (3 Bft)
07.01.2015 11:34 4,4 C 2,8 C 98 % 1028,3 hPa 0,0 l/m 2 min 0 min 188 W/m 14,6 km/h (3 Bft)
07.01.2015 11:36 4,4 C 3,3 C 98 % 1028,2 hPa 0,0 l/m 2 min 0 min 194 W/m 14,6 km/h (3 Bft)
07.01.2015 11:38 4,5 C 3,3 C 98 % 1028,2 hPa 0,0 l/m 2 min 0 min 193 W/m 14,6 km/h (3 Bft)
07.01.2015 11:40 4,6 C 3,3 C 98 % 1028,2 hPa 0,0 l/m 2 min 0 min 198 W/m 20,9 km/h (4 Bft)
07.01.2015 11:42 4,6 C 3,3 C 98 % 1028,2 hPa 0,0 l/m 2 min 0 min 198 W/m 20,9 km/h (4 Bft)
07.01.2015 11:44 4,6 C 3,3 C 98 % 1028,2 hPa 0,0 l/m 2 min 0 min 188 W/m 18,8 km/h (3 Bft)
07.01.2015 11:46 4,7 C 3,3 C 98 % 1028,2 hPa 0,0 l/m 2 min 0 min 201 W/m 18,8 km/h (3 Bft)
07.01.2015 11:48 4,7 C 3,3 C 98 % 1028,2 hPa 0,0 l/m 2 min 0 min 211 W/m 14,6 km/h (3 Bft)
07.01.2015 11:50 4,7 C 3,3 C 98 % 1028,2 hPa 0,0 l/m 2 min 0 min 214 W/m 16,7 km/h (3 Bft)
07.01.2015 11:52 4,8 C 3,3 C 98 % 1028,2 hPa 0,0 l/m 2 min 0 min 211 W/m 10,5 km/h (2 Bft)
07.01.2015 11:54 4,8 C 3,3 C 98 % 1028,2 hPa 0,0 l/m 2 min 0 min 222 W/m 10,5 km/h (2 Bft)
07.01.2015 11:56 4,9 C 3,3 C 98 % 1028,2 hPa 0,0 l/m 2 min 0 min 213 W/m 10,5 km/h (2 Bft)
07.01.2015 11:58 4,9 C 3,3 C 98 % 1028,1 hPa 0,0 l/m 2 min 0 min 223 W/m 18,8 km/h (3 Bft)
07.01.2015 12:00 4,9 C 3,3 C 98 % 1028,1 hPa 0,0 l/m 2 min 0 min 224 W/m 16,7 km/h (3 Bft)
07.01.2015 12:02 5,0 C 3,3 C 98 % 1028,1 hPa 0,0 l/m 2 min 0 min 227 W/m 18,8 km/h (3 Bft)
07.01.2015 12:06 5,1 C 3,3 C 98 % 1028,1 hPa 0,0 l/m 2 min 0 min 231 W/m 14,6 km/h (3 Bft)
07.01.2015 12:08 5,2 C 3,3 C 98 % 1028,1 hPa 0,0 l/m 2 min 0 min 221 W/m 14,6 km/h (3 Bft)
07.01.2015 12:10 5,3 C 3,3 C 98 % 1028,1 hPa 0,0 l/m 2 min 0 min 221 W/m 18,8 km/h (3 Bft)
07.01.2015 12:12 5,3 C 3,3 C 98 % 1028,1 hPa 0,0 l/m 2 min 0 min 235 W/m 20,9 km/h (4 Bft)
07.01.2015 12:14 5,4 C 3,3 C 98 % 1027,9 hPa 0,0 l/m 2 min 0 min 237 W/m 23,0 km/h (4 Bft)
07.01.2015 12:16 5,4 C 3,9 C 98 % 1028,0 hPa 0,0 l/m 2 min 0 min 243 W/m 16,7 km/h (3 Bft)
07.01.2015 12:18 5,4 C 3,9 C 98 % 1028,0 hPa 0,0 l/m 2 min 0 min 239 W/m 20,9 km/h (4 Bft)
07.01.2015 12:20 5,4 C 3,9 C 98 % 1027,9 hPa 0,0 l/m 2 min 0 min 242 W/m 16,7 km/h (3 Bft)
07.01.2015 12:22 5,5 C 3,9 C 98 % 1027,9 hPa 0,0 l/m 2 min 0 min 242 W/m 18,8 km/h (3 Bft)
07.01.2015 12:24 5,6 C 3,9 C 97 % 1027,9 hPa 0,0 l/m 2 min 0 min 248 W/m 18,8 km/h (3 Bft)
07.01.2015 12:26 5,6 C 3,9 C 97 % 1027,9 hPa 0,0 l/m 2 min 0 min 246 W/m 16,7 km/h (3 Bft)
07.01.2015 12:28 5,7 C 3,9 C 97 % 1027,9 hPa 0,0 l/m 2 min 0 min 251 W/m 14,6 km/h (3 Bft)
07.01.2015 12:30 5,8 C 3,9 C 97 % 1027,8 hPa 0,0 l/m 2 min 0 min 247 W/m 20,9 km/h (4 Bft)
07.01.2015 12:32 5,8 C 3,9 C 97 % 1027,8 hPa 0,0 l/m 2 min 0 min 248 W/m 16,7 km/h (3 Bft)
07.01.2015 12:34 5,8 C 3,9 C 97 % 1027,8 hPa 0,0 l/m 2 min 0 min 239 W/m 23,0 km/h (4 Bft)
07.01.2015 12:36 5,9 C 3,9 C 97 % 1027,8 hPa 0,0 l/m 2 min 0 min 242 W/m 18,8 km/h (3 Bft)
07.01.2015 12:38 5,9 C 3,9 C 97 % 1027,7 hPa 0,0 l/m 2 min 0 min 250 W/m 16,7 km/h (3 Bft)
07.01.2015 12:40 6,0 C 3,9 C 96 % 1027,7 hPa 0,0 l/m 2 min 0 min 237 W/m 16,7 km/h (3 Bft)
07.01.2015 12:42 6,1 C 3,9 C 96 % 1027,6 hPa 0,0 l/m 2 min 0 min 227 W/m 16,7 km/h (3 Bft)
07.01.2015 12:44 6,1 C 3,9 C 96 % 1027,6 hPa 0,0 l/m 2 min 0 min 244 W/m 20,9 km/h (4 Bft)
07.01.2015 12:46 6,1 C 3,9 C 96 % 1027,6 hPa 0,0 l/m 2 min 0 min 235 W/m 25,1 km/h (4 Bft)
07.01.2015 12:48 6,2 C 3,9 C 95 % 1027,6 hPa 0,0 l/m 2 min 0 min 235 W/m 23,0 km/h (4 Bft)
07.01.2015 12:50 6,2 C 3,9 C 95 % 1027,6 hPa 0,0 l/m 2 min 0 min 237 W/m 23,0 km/h (4 Bft)
07.01.2015 12:52 6,3 C 3,9 C 95 % 1027,6 hPa 0,0 l/m 2 min 0 min 234 W/m 20,9 km/h (4 Bft)
07.01.2015 12:54 6,3 C 3,9 C 94 % 1027,6 hPa 0,0 l/m 2 min 0 min 233 W/m 20,9 km/h (4 Bft)
07.01.2015 12:56 6,3 C 4,4 C 94 % 1027,6 hPa 0,0 l/m 2 min 0 min 232 W/m 18,8 km/h (3 Bft)
07.01.2015 12:58 6,4 C 4,4 C 93 % 1027,6 hPa 0,0 l/m 2 min 0 min 235 W/m 20,9 km/h (4 Bft)
07.01.2015 13:00 6,4 C 4,4 C 93 % 1027,5 hPa 0,0 l/m 2 min 0 min 226 W/m 20,9 km/h (4 Bft)
07.01.2015 13:02 6,4 C 4,4 C 93 % 1027,5 hPa 0,0 l/m 2 min 0 min 219 W/m 25,1 km/h (4 Bft)
07.01.2015 13:04 6,4 C 4,4 C 92 % 1027,5 hPa 0,0 l/m 2 min 0 min 218 W/m 25,1 km/h (4 Bft)
07.01.2015 13:06 6,4 C 4,4 C 92 % 1027,5 hPa 0,0 l/m 2 min 0 min 228 W/m 20,9 km/h (4 Bft)
07.01.2015 13:08 6,4 C 4,4 C 91 % 1027,5 hPa 0,0 l/m 2 min 0 min 240 W/m 27,2 km/h (4 Bft)
07.01.2015 13:10 6,4 C 4,4 C 91 % 1027,4 hPa 0,0 l/m 2 min 0 min 238 W/m 20,9 km/h (4 Bft)
07.01.2015 13:12 6,5 C 4,4 C 90 % 1027,4 hPa 0,0 l/m 2 min 0 min 234 W/m 31,4 km/h (5 Bft)
07.01.2015 13:14 6,5 C 4,4 C 90 % 1027,5 hPa 0,0 l/m 2 min 0 min 233 W/m 35,6 km/h (5 Bft)
07.01.2015 13:16 6,5 C 4,4 C 89 % 1027,4 hPa 0,0 l/m 2 min 0 min 234 W/m 29,3 km/h (5 Bft)
07.01.2015 13:18 6,6 C 4,4 C 89 % 1027,5 hPa 0,0 l/m 2 min 0 min 233 W/m 20,9 km/h (4 Bft)
07.01.2015 13:20 6,6 C 4,4 C 89 % 1027,5 hPa 0,0 l/m 2 min 0 min 232 W/m 25,1 km/h (4 Bft)
07.01.2015 13:22 6,6 C 4,4 C 88 % 1027,4 hPa 0,0 l/m 2 min 0 min 227 W/m 29,3 km/h (5 Bft)
07.01.2015 13:24 6,7 C 4,4 C 88 % 1027,5 hPa 0,0 l/m 2 min 0 min 221 W/m 33,5 km/h (5 Bft)
07.01.2015 13:26 6,7 C 4,4 C 88 % 1027,5 hPa 0,0 l/m 2 min 0 min 222 W/m 29,3 km/h (5 Bft)
07.01.2015 13:28 6,7 C 4,4 C 87 % 1027,5 hPa 0,0 l/m 2 min 0 min 218 W/m 20,9 km/h (4 Bft)
07.01.2015 13:30 6,7 C 4,4 C 87 % 1027,5 hPa 0,0 l/m 2 min 0 min 220 W/m 31,4 km/h (5 Bft)
07.01.2015 13:32 6,7 C 4,4 C 86 % 1027,4 hPa 0,0 l/m 2 min 0 min 213 W/m 18,8 km/h (3 Bft)
07.01.2015 13:34 6,7 C 4,4 C 86 % 1027,4 hPa 0,0 l/m 2 min 0 min 215 W/m 20,9 km/h (4 Bft)
07.01.2015 13:36 6,8 C 4,4 C 86 % 1027,4 hPa 0,0 l/m 2 min 0 min 215 W/m 18,8 km/h (3 Bft)
07.01.2015 13:38 6,8 C 4,4 C 86 % 1027,3 hPa 0,0 l/m 2 min 0 min 218 W/m 20,9 km/h (4 Bft)
07.01.2015 13:40 6,8 C 4,4 C 86 % 1027,3 hPa 0,0 l/m 2 min 0 min 212 W/m 23,0 km/h (4 Bft)
07.01.2015 13:42 6,8 C 4,4 C 85 % 1027,2 hPa 0,0 l/m 2 min 0 min 204 W/m 27,2 km/h (4 Bft)
07.01.2015 13:44 6,8 C 4,4 C 85 % 1027,2 hPa 0,0 l/m 2 min 0 min 207 W/m 20,9 km/h (4 Bft)
07.01.2015 13:46 6,9 C 4,4 C 85 % 1027,2 hPa 0,0 l/m 2 min 0 min 206 W/m 16,7 km/h (3 Bft)
07.01.2015 13:48 6,9 C 4,4 C 85 % 1027,2 hPa 0,0 l/m 2 min 0 min 197 W/m 20,9 km/h (4 Bft)
07.01.2015 13:50 6,9 C 4,4 C 85 % 1027,1 hPa 0,0 l/m 2 min 0 min 197 W/m 16,7 km/h (3 Bft)
07.01.2015 13:52 6,9 C 4,4 C 85 % 1027,2 hPa 0,0 l/m 2 min 0 min 199 W/m 23,0 km/h (4 Bft)
07.01.2015 13:54 6,9 C 4,4 C 85 % 1027,2 hPa 0,0 l/m 2 min 0 min 195 W/m 14,6 km/h (3 Bft)
07.01.2015 13:56 7,0 C 4,4 C 85 % 1027,1 hPa 0,0 l/m 2 min 0 min 195 W/m 14,6 km/h (3 Bft)
07.01.2015 13:58 7,0 C 4,4 C 85 % 1027,1 hPa 0,0 l/m 2 min 0 min 188 W/m 25,1 km/h (4 Bft)
07.01.2015 14:00 6,9 C 4,4 C 84 % 1027,1 hPa 0,0 l/m 2 min 0 min 185 W/m 27,2 km/h (4 Bft)
07.01.2015 14:02 7,0 C 4,4 C 84 % 1027,2 hPa 0,0 l/m 2 min 0 min 186 W/m 20,9 km/h (4 Bft)
07.01.2015 14:04 7,0 C 4,4 C 84 % 1027,2 hPa 0,0 l/m 2 min 0 min 184 W/m 23,0 km/h (4 Bft)
07.01.2015 14:06 7,0 C 4,4 C 84 % 1027,2 hPa 0,0 l/m 2 min 0 min 182 W/m 20,9 km/h (4 Bft)
07.01.2015 14:08 7,0 C 4,4 C 84 % 1027,2 hPa 0,0 l/m 2 min 0 min 179 W/m 16,7 km/h (3 Bft)
07.01.2015 14:10 7,0 C 4,4 C 83 % 1027,2 hPa 0,0 l/m 2 min 0 min 179 W/m 20,9 km/h (4 Bft)
07.01.2015 14:12 7,0 C 4,4 C 83 % 1027,2 hPa 0,0 l/m 2 min 0 min 177 W/m 18,8 km/h (3 Bft)
07.01.2015 14:14 7,0 C 4,4 C 83 % 1027,2 hPa 0,0 l/m 2 min 0 min 175 W/m 29,3 km/h (5 Bft)
07.01.2015 14:16 6,9 C 4,4 C 83 % 1027,2 hPa 0,0 l/m 2 min 0 min 172 W/m 25,1 km/h (4 Bft)
07.01.2015 14:18 6,9 C 4,4 C 82 % 1027,2 hPa 0,0 l/m 2 min 0 min 166 W/m 23,0 km/h (4 Bft)
07.01.2015 14:20 6,9 C 4,4 C 82 % 1027,2 hPa 0,0 l/m 2 min 0 min 167 W/m 20,9 km/h (4 Bft)
07.01.2015 14:22 6,9 C 4,4 C 82 % 1027,3 hPa 0,0 l/m 2 min 0 min 163 W/m 20,9 km/h (4 Bft)
07.01.2015 14:24 6,9 C 4,4 C 82 % 1027,2 hPa 0,0 l/m 2 min 0 min 160 W/m 23,0 km/h (4 Bft)
07.01.2015 14:26 6,9 C 4,4 C 82 % 1027,3 hPa 0,0 l/m 2 min 0 min 155 W/m 18,8 km/h (3 Bft)
07.01.2015 14:28 6,9 C 4,4 C 82 % 1027,3 hPa 0,0 l/m 2 min 0 min 152 W/m 25,1 km/h (4 Bft)
07.01.2015 14:30 6,9 C 4,4 C 82 % 1027,3 hPa 0,0 l/m 2 min 0 min 149 W/m 23,0 km/h (4 Bft)
07.01.2015 14:32 6,9 C 4,4 C 82 % 1027,3 hPa 0,0 l/m 2 min 0 min 143 W/m 20,9 km/h (4 Bft)
07.01.2015 14:34 6,9 C 4,4 C 82 % 1027,3 hPa 0,0 l/m 2 min 0 min 141 W/m 12,6 km/h (3 Bft)
07.01.2015 14:36 6,9 C 4,4 C 82 % 1027,3 hPa 0,0 l/m 2 min 0 min 140 W/m 10,5 km/h (2 Bft)
07.01.2015 14:38 6,9 C 4,4 C 82 % 1027,3 hPa 0,0 l/m 2 min 0 min 132 W/m 20,9 km/h (4 Bft)
07.01.2015 14:40 6,9 C 4,4 C 82 % 1027,3 hPa 0,0 l/m 2 min 0 min 123 W/m 20,9 km/h (4 Bft)
07.01.2015 14:42 6,9 C 4,4 C 82 % 1027,3 hPa 0,0 l/m 2 min 0 min 122 W/m 18,8 km/h (3 Bft)
07.01.2015 14:44 6,9 C 4,4 C 82 % 1027,3 hPa 0,0 l/m 2 min 0 min 123 W/m 12,6 km/h (3 Bft)
07.01.2015 14:46 6,9 C 4,4 C 82 % 1027,3 hPa 0,0 l/m 2 min 0 min 119 W/m 20,9 km/h (4 Bft)
07.01.2015 14:48 6,8 C 4,4 C 82 % 1027,3 hPa 0,0 l/m 2 min 0 min 117 W/m 14,6 km/h (3 Bft)
07.01.2015 14:50 6,8 C 4,4 C 82 % 1027,3 hPa 0,0 l/m 0 min 0 min 92 W/m 20,9 km/h (4 Bft)
07.01.2015 14:52 6,8 C 4,4 C 82 % 1027,3 hPa 0,0 l/m 0 min 0 min 84 W/m 25,1 km/h (4 Bft)
07.01.2015 14:54 6,7 C 4,4 C 82 % 1027,3 hPa 0,0 l/m 2 min 0 min 118 W/m 20,9 km/h (4 Bft)
07.01.2015 14:56 6,7 C 4,4 C 82 % 1027,4 hPa 0,0 l/m 2 min 0 min 124 W/m 20,9 km/h (4 Bft)
07.01.2015 14:58 6,7 C 4,4 C 82 % 1027,3 hPa 0,0 l/m 2 min 0 min 128 W/m 16,7 km/h (3 Bft)
07.01.2015 15:00 6,7 C 4,4 C 82 % 1027,4 hPa 0,0 l/m 2 min 0 min 126 W/m 20,9 km/h (4 Bft)
07.01.2015 15:02 6,7 C 4,4 C 82 % 1027,4 hPa 0,0 l/m 2 min 0 min 121 W/m 16,7 km/h (3 Bft)
07.01.2015 15:04 6,7 C 4,4 C 83 % 1027,3 hPa 0,0 l/m 2 min 0 min 121 W/m 16,7 km/h (3 Bft)
07.01.2015 15:06 6,6 C 4,4 C 83 % 1027,4 hPa 0,0 l/m 2 min 0 min 107 W/m 18,8 km/h (3 Bft)
07.01.2015 15:08 6,6 C 4,4 C 83 % 1027,3 hPa 0,0 l/m 2 min 0 min 111 W/m 16,7 km/h (3 Bft)
07.01.2015 15:10 6,6 C 4,4 C 83 % 1027,3 hPa 0,0 l/m 2 min 0 min 120 W/m 23,0 km/h (4 Bft)
07.01.2015 15:12 6,6 C 4,4 C 83 % 1027,3 hPa 0,0 l/m 2 min 0 min 103 W/m 20,9 km/h (4 Bft)
07.01.2015 15:14 6,6 C 4,4 C 83 % 1027,3 hPa 0,0 l/m 2 min 0 min 93 W/m 14,6 km/h (3 Bft)
07.01.2015 15:16 6,5 C 4,4 C 83 % 1027,3 hPa 0,0 l/m 2 min 0 min 101 W/m 16,7 km/h (3 Bft)
07.01.2015 15:18 6,5 C 4,4 C 83 % 1027,3 hPa 0,0 l/m 2 min 0 min 97 W/m 23,0 km/h (4 Bft)
07.01.2015 15:20 6,5 C 4,4 C 83 % 1027,2 hPa 0,0 l/m 2 min 0 min 95 W/m 25,1 km/h (4 Bft)
07.01.2015 15:22 6,4 C 4,4 C 83 % 1027,2 hPa 0,0 l/m 2 min 0 min 96 W/m 20,9 km/h (4 Bft)
07.01.2015 15:24 6,4 C 4,4 C 83 % 1027,3 hPa 0,0 l/m 2 min 0 min 84 W/m 31,4 km/h (5 Bft)
07.01.2015 15:26 6,4 C 3,9 C 83 % 1027,3 hPa 0,0 l/m 2 min 0 min 77 W/m 20,9 km/h (4 Bft)
07.01.2015 15:28 6,3 C 3,9 C 83 % 1027,3 hPa 0,0 l/m 2 min 0 min 72 W/m 16,7 km/h (3 Bft)
07.01.2015 15:30 6,3 C 3,9 C 83 % 1027,3 hPa 0,0 l/m 2 min 0 min 68 W/m 12,6 km/h (3 Bft)
07.01.2015 15:32 6,3 C 3,9 C 83 % 1027,3 hPa 0,0 l/m 0 min 0 min 60 W/m 18,8 km/h (3 Bft)
07.01.2015 15:34 6,2 C 3,9 C 83 % 1027,2 hPa 0,0 l/m 0 min 0 min 58 W/m 16,7 km/h (3 Bft)
07.01.2015 15:36 6,2 C 3,9 C 83 % 1027,2 hPa 0,0 l/m 0 min 0 min 54 W/m 14,6 km/h (3 Bft)
07.01.2015 15:38 6,1 C 3,9 C 83 % 1027,3 hPa 0,0 l/m 0 min 0 min 51 W/m 16,7 km/h (3 Bft)
07.01.2015 15:40 6,1 C 3,9 C 83 % 1027,3 hPa 0,0 l/m 0 min 0 min 46 W/m 14,6 km/h (3 Bft)
07.01.2015 15:42 6,0 C 3,3 C 83 % 1027,3 hPa 0,0 l/m 0 min 0 min 41 W/m 23,0 km/h (4 Bft)
07.01.2015 15:44 5,9 C 3,3 C 83 % 1027,3 hPa 0,0 l/m 0 min 0 min 42 W/m 23,0 km/h (4 Bft)
07.01.2015 15:46 5,9 C 3,3 C 83 % 1027,3 hPa 0,0 l/m 0 min 0 min 44 W/m 18,8 km/h (3 Bft)
07.01.2015 15:48 5,8 C 3,3 C 83 % 1027,3 hPa 0,0 l/m 0 min 0 min 41 W/m 14,6 km/h (3 Bft)
07.01.2015 15:50 5,8 C 3,3 C 84 % 1027,3 hPa 0,0 l/m 0 min 0 min 37 W/m 16,7 km/h (3 Bft)
07.01.2015 15:52 5,7 C 3,3 C 84 % 1027,3 hPa 0,0 l/m 0 min 0 min 35 W/m 16,7 km/h (3 Bft)
07.01.2015 15:54 5,7 C 3,3 C 84 % 1027,4 hPa 0,0 l/m 0 min 0 min 33 W/m 16,7 km/h (3 Bft)
07.01.2015 15:56 5,6 C 3,3 C 84 % 1027,3 hPa 0,0 l/m 0 min 0 min 32 W/m 20,9 km/h (4 Bft)
07.01.2015 15:58 5,6 C 3,3 C 84 % 1027,4 hPa 0,0 l/m 0 min 0 min 33 W/m 14,6 km/h (3 Bft)
07.01.2015 16:00 5,5 C 3,3 C 84 % 1027,4 hPa 0,0 l/m 0 min 0 min 30 W/m 10,5 km/h (2 Bft)
07.01.2015 16:02 5,5 C 3,3 C 85 % 1027,4 hPa 0,0 l/m 0 min 0 min 30 W/m 16,7 km/h (3 Bft)
07.01.2015 16:04 5,4 C 3,3 C 85 % 1027,3 hPa 0,0 l/m 0 min 0 min 29 W/m 16,7 km/h (3 Bft)
07.01.2015 16:06 5,4 C 3,3 C 85 % 1027,3 hPa 0,0 l/m 0 min 0 min 27 W/m 14,6 km/h (3 Bft)
07.01.2015 16:08 5,4 C 3,3 C 85 % 1027,3 hPa 0,0 l/m 0 min 0 min 26 W/m 14,6 km/h (3 Bft)
07.01.2015 16:10 5,3 C 3,3 C 85 % 1027,4 hPa 0,0 l/m 0 min 0 min 25 W/m 25,1 km/h (4 Bft)
07.01.2015 16:12 5,3 C 2,8 C 85 % 1027,4 hPa 0,0 l/m 0 min 0 min 23 W/m 20,9 km/h (4 Bft)
07.01.2015 16:14 5,2 C 2,8 C 85 % 1027,4 hPa 0,0 l/m 0 min 0 min 22 W/m 25,1 km/h (4 Bft)
07.01.2015 16:16 5,2 C 2,8 C 85 % 1027,3 hPa 0,0 l/m 0 min 0 min 19 W/m 20,9 km/h (4 Bft)
07.01.2015 16:18 5,1 C 2,8 C 86 % 1027,3 hPa 0,0 l/m 0 min 0 min 18 W/m 23,0 km/h (4 Bft)
07.01.2015 16:20 5,1 C 2,8 C 86 % 1027,5 hPa 0,0 l/m 0 min 0 min 16 W/m 31,4 km/h (5 Bft)
07.01.2015 16:22 4,9 C 2,8 C 86 % 1027,4 hPa 0,0 l/m 0 min 0 min 15 W/m 27,2 km/h (4 Bft)
07.01.2015 16:24 4,9 C 2,8 C 86 % 1027,4 hPa 0,0 l/m 0 min 0 min 13 W/m 18,8 km/h (3 Bft)
07.01.2015 16:26 4,9 C 2,8 C 86 % 1027,4 hPa 0,0 l/m 2 min 0 min 12 W/m 20,9 km/h (4 Bft)
07.01.2015 16:28 4,9 C 2,8 C 86 % 1027,4 hPa 0,0 l/m 2 min 0 min 11 W/m 18,8 km/h (3 Bft)
07.01.2015 16:30 4,8 C 2,8 C 86 % 1027,3 hPa 0,0 l/m 2 min 0 min 11 W/m 20,9 km/h (4 Bft)
07.01.2015 16:32 4,8 C 2,8 C 86 % 1027,4 hPa 0,0 l/m 0 min 0 min 10 W/m 25,1 km/h (4 Bft)
07.01.2015 16:34 4,7 C 2,8 C 86 % 1027,4 hPa 0,0 l/m 0 min 0 min 9 W/m 20,9 km/h (4 Bft)
07.01.2015 16:36 4,7 C 2,8 C 86 % 1027,4 hPa 0,0 l/m 0 min 0 min 8 W/m 14,6 km/h (3 Bft)
07.01.2015 16:38 4,6 C 2,8 C 86 % 1027,5 hPa 0,0 l/m 0 min 0 min 7 W/m 14,6 km/h (3 Bft)
07.01.2015 16:40 4,6 C 2,2 C 86 % 1027,5 hPa 0,0 l/m 0 min 0 min 5 W/m 18,8 km/h (3 Bft)
07.01.2015 16:42 4,5 C 2,2 C 87 % 1027,5 hPa 0,0 l/m 0 min 0 min 5 W/m 20,9 km/h (4 Bft)
07.01.2015 16:44 4,5 C 2,2 C 87 % 1027,5 hPa 0,0 l/m 0 min 0 min 1 W/m 18,8 km/h (3 Bft)
07.01.2015 16:46 4,4 C 2,2 C 87 % 1027,6 hPa 0,0 l/m 0 min 0 min 0 W/m 25,1 km/h (4 Bft)
07.01.2015 16:48 4,4 C 2,2 C 87 % 1027,5 hPa 0,0 l/m 0 min 0 min 0 W/m 25,1 km/h (4 Bft)
07.01.2015 16:50 4,3 C 2,2 C 87 % 1027,6 hPa 0,0 l/m 0 min 0 min 0 W/m 18,8 km/h (3 Bft)
07.01.2015 16:52 4,3 C 2,2 C 87 % 1027,6 hPa 0,0 l/m 0 min 0 min 0 W/m 16,7 km/h (3 Bft)
07.01.2015 16:54 4,2 C 2,2 C 87 % 1027,6 hPa 0,0 l/m 0 min 0 min 0 W/m 18,8 km/h (3 Bft)
07.01.2015 16:56 4,2 C 2,2 C 87 % 1027,6 hPa 0,0 l/m 0 min 0 min 0 W/m 10,5 km/h (2 Bft)
07.01.2015 16:58 4,2 C 2,2 C 87 % 1027,6 hPa 0,0 l/m 0 min 0 min 0 W/m 18,8 km/h (3 Bft)
07.01.2015 17:00 4,2 C 2,2 C 87 % 1027,6 hPa 0,0 l/m 0 min 0 min 0 W/m 18,8 km/h (3 Bft)
07.01.2015 17:02 4,1 C 2,2 C 87 % 1027,5 hPa 0,0 l/m 0 min 0 min 0 W/m 25,1 km/h (4 Bft)
07.01.2015 17:04 4,1 C 2,2 C 87 % 1027,5 hPa 0,0 l/m 0 min 0 min 0 W/m 20,9 km/h (4 Bft)
07.01.2015 17:06 4,0 C 2,2 C 87 % 1027,6 hPa 0,0 l/m 0 min 0 min 0 W/m 20,9 km/h (4 Bft)
07.01.2015 17:08 3,9 C 2,2 C 87 % 1027,6 hPa 0,0 l/m 0 min 0 min 0 W/m 14,6 km/h (3 Bft)
07.01.2015 17:10 3,9 C 1,7 C 87 % 1027,5 hPa 0,0 l/m 0 min 0 min 0 W/m 20,9 km/h (4 Bft)
07.01.2015 17:12 3,9 C 1,7 C 88 % 1027,5 hPa 0,0 l/m 0 min 0 min 0 W/m 18,8 km/h (3 Bft)
07.01.2015 17:14 3,8 C 1,7 C 88 % 1027,6 hPa 0,0 l/m 0 min 0 min 0 W/m 14,6 km/h (3 Bft)
07.01.2015 17:16 3,8 C 1,7 C 88 % 1027,6 hPa 0,0 l/m 0 min 0 min 0 W/m 14,6 km/h (3 Bft)
07.01.2015 17:18 3,7 C 1,7 C 88 % 1027,6 hPa 0,0 l/m 0 min 0 min 0 W/m 18,8 km/h (3 Bft)
07.01.2015 17:20 3,7 C 1,7 C 88 % 1027,5 hPa 0,0 l/m 0 min 0 min 0 W/m 16,7 km/h (3 Bft)
07.01.2015 17:22 3,7 C 1,7 C 88 % 1027,5 hPa 0,0 l/m 0 min 0 min 0 W/m 14,6 km/h (3 Bft)
07.01.2015 17:24 3,7 C 1,7 C 88 % 1027,5 hPa 0,0 l/m 0 min 0 min 0 W/m 16,7 km/h (3 Bft)
07.01.2015 17:26 3,6 C 1,7 C 88 % 1027,5 hPa 0,0 l/m 0 min 0 min 0 W/m 18,8 km/h (3 Bft)
07.01.2015 17:28 3,6 C 1,7 C 88 % 1027,5 hPa 0,0 l/m 0 min 0 min 0 W/m 14,6 km/h (3 Bft)
07.01.2015 17:30 3,6 C 1,7 C 88 % 1027,5 hPa 0,0 l/m 0 min 0 min 0 W/m 20,9 km/h (4 Bft)
07.01.2015 17:32 3,5 C 1,7 C 88 % 1027,5 hPa 0,0 l/m 0 min 0 min 0 W/m 14,6 km/h (3 Bft)
07.01.2015 17:34 3,5 C 1,7 C 88 % 1027,4 hPa 0,0 l/m 0 min 0 min 0 W/m 12,6 km/h (3 Bft)
07.01.2015 17:36 3,4 C 1,7 C 88 % 1027,4 hPa 0,0 l/m 0 min 0 min 0 W/m 10,5 km/h (2 Bft)
07.01.2015 17:38 3,4 C 1,1 C 88 % 1027,3 hPa 0,0 l/m 0 min 0 min 0 W/m 12,6 km/h (3 Bft)
07.01.2015 17:40 3,4 C 1,1 C 88 % 1027,4 hPa 0,0 l/m 0 min 0 min 0 W/m 12,6 km/h (3 Bft)
07.01.2015 17:42 3,3 C 1,1 C 88 % 1027,3 hPa 0,0 l/m 0 min 0 min 0 W/m 20,9 km/h (4 Bft)
07.01.2015 17:44 3,3 C 1,1 C 89 % 1027,2 hPa 0,0 l/m 0 min 0 min 0 W/m 16,7 km/h (3 Bft)
07.01.2015 17:46 3,3 C 1,1 C 88 % 1027,2 hPa 0,0 l/m 0 min 0 min 0 W/m 14,6 km/h (3 Bft)
07.01.2015 17:48 3,3 C 1,1 C 89 % 1027,2 hPa 0,0 l/m 0 min 0 min 0 W/m 10,5 km/h (2 Bft)
07.01.2015 17:50 3,2 C 1,1 C 89 % 1027,2 hPa 0,0 l/m 0 min 0 min 0 W/m 12,6 km/h (3 Bft)
07.01.2015 17:52 3,2 C 1,1 C 89 % 1027,1 hPa 0,0 l/m 0 min 0 min 0 W/m 14,6 km/h (3 Bft)
07.01.2015 17:54 3,2 C 1,1 C 89 % 1027,1 hPa 0,0 l/m 0 min 0 min 0 W/m 8,4 km/h (2 Bft)
07.01.2015 17:56 3,2 C 1,1 C 89 % 1027,1 hPa 0,0 l/m 0 min 0 min 0 W/m 8,4 km/h (2 Bft)
07.01.2015 17:58 3,1 C 1,1 C 89 % 1027,2 hPa 0,0 l/m 0 min 0 min 0 W/m 18,8 km/h (3 Bft)
07.01.2015 18:00 3,1 C 1,1 C 89 % 1027,1 hPa 0,0 l/m 0 min 0 min 0 W/m 14,6 km/h (3 Bft)
07.01.2015 18:02 3,1 C 1,1 C 89 % 1027,1 hPa 0,0 l/m 0 min 0 min 0 W/m 23,0 km/h (4 Bft)
07.01.2015 18:05 3,0 C 1,1 C 89 % 1027,1 hPa 0,0 l/m 0 min 0 min 0 W/m 18,8 km/h (3 Bft)
07.01.2015 18:06 3,0 C 1,1 C 89 % 1027,1 hPa 0,0 l/m 0 min 0 min 0 W/m 14,6 km/h (3 Bft)
07.01.2015 18:08 3,0 C 1,1 C 89 % 1027,1 hPa 0,0 l/m 0 min 0 min 0 W/m 14,6 km/h (3 Bft)
07.01.2015 18:10 2,9 C 1,1 C 89 % 1027,1 hPa 0,0 l/m 0 min 0 min 0 W/m 12,6 km/h (3 Bft)
07.01.2015 18:12 2,9 C 1,1 C 89 % 1027,1 hPa 0,0 l/m 0 min 0 min 0 W/m 14,6 km/h (3 Bft)
07.01.2015 18:14 2,9 C 1,1 C 90 % 1027,1 hPa 0,0 l/m 0 min 0 min 0 W/m 12,6 km/h (3 Bft)
07.01.2015 18:16 2,9 C 1,7 C 90 % 1027,1 hPa 0,0 l/m 0 min 0 min 0 W/m 25,1 km/h (4 Bft)
07.01.2015 18:18 2,9 C 1,7 C 90 % 1027,1 hPa 0,0 l/m 0 min 0 min 0 W/m 14,6 km/h (3 Bft)
07.01.2015 18:20 2,9 C 1,7 C 90 % 1027,1 hPa 0,0 l/m 0 min 0 min 0 W/m 18,8 km/h (3 Bft)
07.01.2015 18:22 2,9 C 1,7 C 90 % 1027,1 hPa 0,0 l/m 0 min 0 min 0 W/m 14,6 km/h (3 Bft)
07.01.2015 18:24 2,9 C 1,1 C 90 % 1027,1 hPa 0,0 l/m 0 min 0 min 0 W/m 16,7 km/h (3 Bft)
07.01.2015 18:26 2,9 C 1,1 C 90 % 1027,0 hPa 0,0 l/m 0 min 0 min 0 W/m 16,7 km/h (3 Bft)
07.01.2015 18:28 2,9 C 1,1 C 90 % 1027,0 hPa 0,0 l/m 0 min 0 min 0 W/m 14,6 km/h (3 Bft)
07.01.2015 18:30 2,9 C 1,1 C 90 % 1026,9 hPa 0,0 l/m 0 min 0 min 0 W/m 8,4 km/h (2 Bft)
07.01.2015 18:32 2,9 C 1,1 C 90 % 1026,9 hPa 0,0 l/m 0 min 0 min 0 W/m 14,6 km/h (3 Bft)
07.01.2015 18:34 2,9 C 1,1 C 90 % 1026,9 hPa 0,0 l/m 0 min 0 min 0 W/m 18,8 km/h (3 Bft)
07.01.2015 18:36 2,8 C 1,1 C 90 % 1027,0 hPa 0,0 l/m 0 min 0 min 0 W/m 16,7 km/h (3 Bft)
07.01.2015 18:38 2,8 C 1,1 C 90 % 1026,9 hPa 0,0 l/m 0 min 0 min 0 W/m 14,6 km/h (3 Bft)
07.01.2015 18:40 2,8 C 1,1 C 90 % 1026,9 hPa 0,0 l/m 0 min 0 min 0 W/m 16,7 km/h (3 Bft)
07.01.2015 18:42 2,8 C 1,1 C 90 % 1026,9 hPa 0,0 l/m 0 min 0 min 0 W/m 12,6 km/h (3 Bft)
07.01.2015 18:44 2,8 C 1,1 C 90 % 1026,8 hPa 0,0 l/m 0 min 0 min 0 W/m 16,7 km/h (3 Bft)
07.01.2015 18:46 2,8 C 1,1 C 90 % 1026,8 hPa 0,0 l/m 0 min 0 min 0 W/m 12,6 km/h (3 Bft)
07.01.2015 18:48 2,8 C 1,1 C 90 % 1026,9 hPa 0,0 l/m 0 min 0 min 0 W/m 14,6 km/h (3 Bft)
07.01.2015 18:50 2,8 C 1,1 C 90 % 1026,9 hPa 0,0 l/m 0 min 0 min 0 W/m 12,6 km/h (3 Bft)
07.01.2015 18:52 2,8 C 1,1 C 90 % 1026,9 hPa 0,0 l/m 0 min 0 min 0 W/m 18,8 km/h (3 Bft)
07.01.2015 18:54 2,8 C 1,1 C 90 % 1026,9 hPa 0,0 l/m 0 min 0 min 0 W/m 10,5 km/h (2 Bft)
07.01.2015 18:56 2,8 C 1,1 C 90 % 1026,9 hPa 0,0 l/m 0 min 0 min 0 W/m 14,6 km/h (3 Bft)
07.01.2015 18:58 2,7 C 1,1 C 90 % 1026,9 hPa 0,0 l/m 0 min 0 min 0 W/m 12,6 km/h (3 Bft)
07.01.2015 19:00 2,7 C 1,1 C 90 % 1027,0 hPa 0,0 l/m 0 min 0 min 0 W/m 14,6 km/h (3 Bft)
07.01.2015 19:02 2,7 C 1,1 C 90 % 1027,0 hPa 0,0 l/m 0 min 0 min 0 W/m 16,7 km/h (3 Bft)
07.01.2015 19:04 2,7 C 1,1 C 90 % 1027,0 hPa 0,0 l/m 0 min 0 min 0 W/m 14,6 km/h (3 Bft)
07.01.2015 19:06 2,7 C 1,1 C 90 % 1027,0 hPa 0,0 l/m 0 min 0 min 0 W/m 25,1 km/h (4 Bft)
07.01.2015 19:08 2,7 C 1,1 C 90 % 1026,9 hPa 0,0 l/m 0 min 0 min 0 W/m 18,8 km/h (3 Bft)
07.01.2015 19:10 2,7 C 1,1 C 90 % 1026,9 hPa 0,0 l/m 0 min 0 min 0 W/m 20,9 km/h (4 Bft)
07.01.2015 19:12 2,7 C 1,1 C 90 % 1026,9 hPa 0,0 l/m 0 min 0 min 0 W/m 12,6 km/h (3 Bft)
07.01.2015 19:14 2,7 C 1,1 C 90 % 1027,0 hPa 0,0 l/m 0 min 0 min 0 W/m 18,8 km/h (3 Bft)
07.01.2015 19:16 2,7 C 1,1 C 90 % 1026,9 hPa 0,0 l/m 0 min 0 min 0 W/m 14,6 km/h (3 Bft)
07.01.2015 19:18 2,7 C 1,1 C 90 % 1026,9 hPa 0,0 l/m 0 min 0 min 0 W/m 16,7 km/h (3 Bft)
07.01.2015 19:20 2,7 C 1,1 C 90 % 1026,9 hPa 0,0 l/m 0 min 0 min 0 W/m 14,6 km/h (3 Bft)
07.01.2015 19:22 2,6 C 1,1 C 90 % 1026,9 hPa 0,0 l/m 0 min 0 min 0 W/m 18,8 km/h (3 Bft)
07.01.2015 19:24 2,6 C 1,1 C 90 % 1026,9 hPa 0,0 l/m 0 min 0 min 0 W/m 18,8 km/h (3 Bft)
07.01.2015 19:26 2,6 C 1,1 C 90 % 1026,9 hPa 0,0 l/m 0 min 0 min 0 W/m 18,8 km/h (3 Bft)
07.01.2015 19:28 2,6 C 1,1 C 90 % 1026,9 hPa 0,0 l/m 0 min 0 min 0 W/m 23,0 km/h (4 Bft)
07.01.2015 19:30 2,6 C 1,1 C 90 % 1026,9 hPa 0,0 l/m 0 min 0 min 0 W/m 20,9 km/h (4 Bft)
07.01.2015 19:32 2,6 C 1,1 C 90 % 1026,9 hPa 0,0 l/m 0 min 0 min 0 W/m 23,0 km/h (4 Bft)
07.01.2015 19:34 2,6 C 1,1 C 90 % 1026,8 hPa 0,0 l/m 0 min 0 min 0 W/m 16,7 km/h (3 Bft)
07.01.2015 19:36 2,6 C 1,1 C 90 % 1026,8 hPa 0,0 l/m 0 min 0 min 0 W/m 16,7 km/h (3 Bft)
07.01.2015 19:38 2,6 C 1,1 C 90 % 1026,8 hPa 0,0 l/m 0 min 0 min 0 W/m 12,6 km/h (3 Bft)
07.01.2015 19:40 2,6 C 1,1 C 90 % 1026,9 hPa 0,0 l/m 0 min 0 min 0 W/m 14,6 km/h (3 Bft)
07.01.2015 19:42 2,6 C 1,1 C 90 % 1026,9 hPa 0,0 l/m 0 min 0 min 0 W/m 20,9 km/h (4 Bft)
07.01.2015 19:44 2,5 C 1,1 C 90 % 1026,9 hPa 0,0 l/m 0 min 0 min 0 W/m 16,7 km/h (3 Bft)
07.01.2015 19:46 2,5 C 1,1 C 90 % 1026,9 hPa 0,0 l/m 0 min 0 min 0 W/m 20,9 km/h (4 Bft)
07.01.2015 19:48 2,5 C 1,1 C 90 % 1027,0 hPa 0,0 l/m 0 min 0 min 0 W/m 16,7 km/h (3 Bft)
07.01.2015 19:50 2,5 C 1,1 C 90 % 1026,9 hPa 0,0 l/m 0 min 0 min 0 W/m 20,9 km/h (4 Bft)
07.01.2015 19:52 2,5 C 1,1 C 90 % 1027,0 hPa 0,0 l/m 0 min 0 min 0 W/m 20,9 km/h (4 Bft)
07.01.2015 19:54 2,5 C 1,1 C 90 % 1027,0 hPa 0,0 l/m 0 min 0 min 0 W/m 16,7 km/h (3 Bft)
07.01.2015 19:56 2,5 C 1,1 C 90 % 1026,9 hPa 0,0 l/m 0 min 0 min 0 W/m 20,9 km/h (4 Bft)
07.01.2015 19:58 2,4 C 1,1 C 90 % 1026,9 hPa 0,0 l/m 0 min 0 min 0 W/m 23,0 km/h (4 Bft)
07.01.2015 20:00 2,4 C 1,1 C 90 % 1026,8 hPa 0,0 l/m 0 min 0 min 0 W/m 14,6 km/h (3 Bft)
07.01.2015 20:02 2,4 C 1,1 C 90 % 1026,7 hPa 0,0 l/m 0 min 0 min 0 W/m 16,7 km/h (3 Bft)
07.01.2015 20:04 2,4 C 1,1 C 90 % 1026,8 hPa 0,0 l/m 0 min 0 min 0 W/m 20,9 km/h (4 Bft)
07.01.2015 20:06 2,4 C 1,1 C 90 % 1026,7 hPa 0,0 l/m 0 min 0 min 0 W/m 14,6 km/h (3 Bft)
07.01.2015 20:08 2,4 C 1,1 C 90 % 1026,7 hPa 0,0 l/m 0 min 0 min 0 W/m 16,7 km/h (3 Bft)
07.01.2015 20:10 2,4 C 1,1 C 90 % 1026,7 hPa 0,0 l/m 0 min 0 min 0 W/m 23,0 km/h (4 Bft)
07.01.2015 20:12 2,4 C 1,1 C 89 % 1026,7 hPa 0,0 l/m 0 min 0 min 0 W/m 14,6 km/h (3 Bft)
07.01.2015 20:14 2,4 C 1,1 C 89 % 1026,7 hPa 0,0 l/m 0 min 0 min 0 W/m 18,8 km/h (3 Bft)
07.01.2015 20:16 2,4 C 1,1 C 89 % 1026,7 hPa 0,0 l/m 0 min 0 min 0 W/m 20,9 km/h (4 Bft)
07.01.2015 20:18 2,4 C 1,1 C 89 % 1026,7 hPa 0,0 l/m 0 min 0 min 0 W/m 14,6 km/h (3 Bft)
07.01.2015 20:20 2,4 C 1,1 C 89 % 1026,8 hPa 0,0 l/m 0 min 0 min 0 W/m 18,8 km/h (3 Bft)
07.01.2015 20:22 2,4 C 1,1 C 89 % 1026,8 hPa 0,0 l/m 0 min 0 min 0 W/m 14,6 km/h (3 Bft)
07.01.2015 20:24 2,4 C 1,1 C 89 % 1026,9 hPa 0,0 l/m 0 min 0 min 0 W/m 20,9 km/h (4 Bft)
07.01.2015 20:26 2,4 C 1,1 C 89 % 1026,8 hPa 0,0 l/m 0 min 0 min 0 W/m 14,6 km/h (3 Bft)
07.01.2015 20:28 2,4 C 1,1 C 89 % 1026,8 hPa 0,0 l/m 0 min 0 min 0 W/m 23,0 km/h (4 Bft)
07.01.2015 20:30 2,4 C 1,1 C 89 % 1026,8 hPa 0,0 l/m 0 min 0 min 0 W/m 23,0 km/h (4 Bft)
07.01.2015 20:32 2,4 C 1,1 C 89 % 1026,8 hPa 0,0 l/m 0 min 0 min 0 W/m 16,7 km/h (3 Bft)
07.01.2015 20:34 2,4 C 1,1 C 89 % 1026,9 hPa 0,0 l/m 0 min 0 min 0 W/m 18,8 km/h (3 Bft)
07.01.2015 20:36 2,4 C 1,1 C 89 % 1026,8 hPa 0,0 l/m 0 min 0 min 0 W/m 12,6 km/h (3 Bft)
07.01.2015 20:38 2,4 C 1,1 C 89 % 1026,9 hPa 0,0 l/m 0 min 0 min 0 W/m 20,9 km/h (4 Bft)
07.01.2015 20:40 2,4 C 1,1 C 89 % 1026,9 hPa 0,0 l/m 0 min 0 min 0 W/m 27,2 km/h (4 Bft)
07.01.2015 20:42 2,4 C 1,1 C 89 % 1026,8 hPa 0,0 l/m 0 min 0 min 0 W/m 16,7 km/h (3 Bft)
07.01.2015 20:44 2,3 C 1,1 C 89 % 1026,8 hPa 0,0 l/m 0 min 0 min 0 W/m 18,8 km/h (3 Bft)
07.01.2015 20:46 2,3 C 1,1 C 89 % 1026,9 hPa 0,0 l/m 0 min 0 min 0 W/m 12,6 km/h (3 Bft)
07.01.2015 20:48 2,3 C 1,1 C 89 % 1026,9 hPa 0,0 l/m 0 min 0 min 0 W/m 14,6 km/h (3 Bft)
07.01.2015 20:50 2,3 C 1,1 C 89 % 1026,9 hPa 0,0 l/m 0 min 0 min 0 W/m 23,0 km/h (4 Bft)
07.01.2015 20:52 2,3 C 1,1 C 89 % 1026,8 hPa 0,0 l/m 0 min 0 min 0 W/m 14,6 km/h (3 Bft)
07.01.2015 20:54 2,3 C 1,1 C 89 % 1026,8 hPa 0,0 l/m 0 min 0 min 0 W/m 14,6 km/h (3 Bft)
07.01.2015 20:56 2,3 C 1,1 C 89 % 1026,8 hPa 0,0 l/m 0 min 0 min 0 W/m 18,8 km/h (3 Bft)
07.01.2015 20:58 2,3 C 1,1 C 89 % 1026,8 hPa 0,0 l/m 0 min 0 min 0 W/m 16,7 km/h (3 Bft)
07.01.2015 21:00 2,3 C 1,1 C 89 % 1026,8 hPa 0,0 l/m 0 min 0 min 0 W/m 18,8 km/h (3 Bft)
07.01.2015 21:02 2,3 C 0,6 C 89 % 1026,8 hPa 0,0 l/m 0 min 0 min 0 W/m 14,6 km/h (3 Bft)
07.01.2015 21:04 2,3 C 0,6 C 89 % 1026,6 hPa 0,0 l/m 0 min 0 min 0 W/m 16,7 km/h (3 Bft)
07.01.2015 21:06 2,3 C 0,6 C 89 % 1026,6 hPa 0,0 l/m 0 min 0 min 0 W/m 14,6 km/h (3 Bft)
07.01.2015 21:08 2,3 C 0,6 C 89 % 1026,6 hPa 0,0 l/m 0 min 0 min 0 W/m 16,7 km/h (3 Bft)
07.01.2015 21:10 2,3 C 0,6 C 89 % 1026,6 hPa 0,0 l/m 0 min 0 min 0 W/m 16,7 km/h (3 Bft)
07.01.2015 21:12 2,3 C 0,6 C 89 % 1026,6 hPa 0,0 l/m 0 min 0 min 0 W/m 14,6 km/h (3 Bft)
07.01.2015 21:14 2,3 C 0,6 C 89 % 1026,4 hPa 0,0 l/m 0 min 0 min 0 W/m 16,7 km/h (3 Bft)
07.01.2015 21:16 2,2 C 0,6 C 89 % 1026,3 hPa 0,0 l/m 0 min 0 min 0 W/m 14,6 km/h (3 Bft)
07.01.2015 21:18 2,2 C 0,6 C 89 % 1026,3 hPa 0,0 l/m 0 min 0 min 0 W/m 20,9 km/h (4 Bft)
07.01.2015 21:20 2,2 C 0,6 C 89 % 1026,3 hPa 0,0 l/m 0 min 0 min 0 W/m 14,6 km/h (3 Bft)
07.01.2015 21:22 2,2 C 0,6 C 89 % 1026,3 hPa 0,0 l/m 0 min 0 min 0 W/m 29,3 km/h (5 Bft)
07.01.2015 21:24 2,2 C 0,6 C 89 % 1026,3 hPa 0,0 l/m 0 min 0 min 0 W/m 20,9 km/h (4 Bft)
07.01.2015 21:26 2,2 C 0,6 C 89 % 1026,2 hPa 0,0 l/m 0 min 0 min 0 W/m 20,9 km/h (4 Bft)
07.01.2015 21:28 2,2 C 0,6 C 89 % 1026,2 hPa 0,0 l/m 0 min 0 min 0 W/m 18,8 km/h (3 Bft)
07.01.2015 21:30 2,2 C 0,6 C 89 % 1026,2 hPa 0,0 l/m 0 min 0 min 0 W/m 16,7 km/h (3 Bft)
07.01.2015 21:32 2,1 C 0,6 C 89 % 1026,2 hPa 0,0 l/m 0 min 0 min 0 W/m 20,9 km/h (4 Bft)
07.01.2015 21:34 2,1 C 0,6 C 89 % 1026,1 hPa 0,0 l/m 0 min 0 min 0 W/m 20,9 km/h (4 Bft)
07.01.2015 21:36 2,1 C 0,6 C 89 % 1026,0 hPa 0,0 l/m 0 min 0 min 0 W/m 12,6 km/h (3 Bft)
07.01.2015 21:38 2,1 C 0,6 C 89 % 1026,0 hPa 0,0 l/m 0 min 0 min 0 W/m 20,9 km/h (4 Bft)
07.01.2015 21:40 2,1 C 0,6 C 89 % 1026,0 hPa 0,0 l/m 0 min 0 min 0 W/m 14,6 km/h (3 Bft)
07.01.2015 21:42 2,1 C 0,6 C 89 % 1026,0 hPa 0,0 l/m 0 min 0 min 0 W/m 27,2 km/h (4 Bft)
07.01.2015 21:44 2,1 C 0,6 C 89 % 1026,0 hPa 0,0 l/m 0 min 0 min 0 W/m 16,7 km/h (3 Bft)
07.01.2015 21:46 2,1 C 0,6 C 89 % 1026,0 hPa 0,0 l/m 0 min 0 min 0 W/m 14,6 km/h (3 Bft)
07.01.2015 21:48 2,1 C 0,6 C 89 % 1026,0 hPa 0,0 l/m 0 min 0 min 0 W/m 12,6 km/h (3 Bft)
07.01.2015 21:50 2,0 C 0,6 C 89 % 1026,1 hPa 0,0 l/m 0 min 0 min 0 W/m 18,8 km/h (3 Bft)
07.01.2015 21:52 2,0 C 0,0 C 89 % 1026,1 hPa 0,0 l/m 0 min 0 min 0 W/m 12,6 km/h (3 Bft)
07.01.2015 21:54 2,0 C 0,0 C 89 % 1026,0 hPa 0,0 l/m 0 min 0 min 0 W/m 14,6 km/h (3 Bft)
07.01.2015 21:56 1,9 C 0,0 C 89 % 1026,0 hPa 0,0 l/m 0 min 0 min 0 W/m 14,6 km/h (3 Bft)
07.01.2015 21:58 1,9 C 0,6 C 89 % 1026,0 hPa 0,0 l/m 0 min 0 min 0 W/m 14,6 km/h (3 Bft)
07.01.2015 22:00 1,9 C 0,6 C 89 % 1026,1 hPa 0,0 l/m 0 min 0 min 0 W/m 14,6 km/h (3 Bft)
07.01.2015 22:02 1,9 C 0,6 C 89 % 1026,1 hPa 0,0 l/m 0 min 0 min 0 W/m 14,6 km/h (3 Bft)
07.01.2015 22:04 1,9 C 0,6 C 89 % 1026,1 hPa 0,0 l/m 0 min 0 min 0 W/m 14,6 km/h (3 Bft)
07.01.2015 22:06 1,9 C 0,6 C 89 % 1026,2 hPa 0,0 l/m 0 min 0 min 0 W/m 18,8 km/h (3 Bft)
07.01.2015 22:08 1,9 C 0,6 C 89 % 1026,2 hPa 0,0 l/m 0 min 0 min 0 W/m 12,6 km/h (3 Bft)
07.01.2015 22:10 1,9 C 0,6 C 89 % 1026,3 hPa 0,0 l/m 0 min 0 min 0 W/m 10,5 km/h (2 Bft)
07.01.2015 22:12 1,9 C 0,6 C 89 % 1026,3 hPa 0,0 l/m 0 min 0 min 0 W/m 12,6 km/h (3 Bft)
07.01.2015 22:14 1,9 C 0,6 C 89 % 1026,3 hPa 0,0 l/m 0 min 0 min 0 W/m 14,6 km/h (3 Bft)
07.01.2015 22:16 1,9 C 0,6 C 89 % 1026,4 hPa 0,0 l/m 0 min 0 min 0 W/m 12,6 km/h (3 Bft)
07.01.2015 22:18 1,9 C 0,6 C 89 % 1026,3 hPa 0,0 l/m 0 min 0 min 0 W/m 14,6 km/h (3 Bft)
07.01.2015 22:20 1,9 C 0,6 C 89 % 1026,5 hPa 0,0 l/m 0 min 0 min 0 W/m 10,5 km/h (2 Bft)
07.01.2015 22:22 1,9 C 1,1 C 89 % 1026,4 hPa 0,0 l/m 0 min 0 min 0 W/m 14,6 km/h (3 Bft)
07.01.2015 22:24 1,9 C 1,1 C 89 % 1026,4 hPa 0,0 l/m 0 min 0 min 0 W/m 14,6 km/h (3 Bft)
07.01.2015 22:26 1,9 C 1,1 C 89 % 1026,3 hPa 0,0 l/m 0 min 0 min 0 W/m 14,6 km/h (3 Bft)
07.01.2015 22:28 1,9 C 1,1 C 89 % 1026,3 hPa 0,0 l/m 0 min 0 min 0 W/m 16,7 km/h (3 Bft)
07.01.2015 22:30 1,9 C 1,1 C 89 % 1026,3 hPa 0,0 l/m 0 min 0 min 0 W/m 20,9 km/h (4 Bft)
07.01.2015 22:32 1,9 C 1,1 C 89 % 1026,3 hPa 0,0 l/m 0 min 0 min 0 W/m 20,9 km/h (4 Bft)
07.01.2015 22:34 1,9 C 1,1 C 89 % 1026,2 hPa 0,0 l/m 0 min 0 min 0 W/m 14,6 km/h (3 Bft)
07.01.2015 22:36 1,9 C 1,1 C 89 % 1026,1 hPa 0,0 l/m 0 min 0 min 0 W/m 14,6 km/h (3 Bft)
07.01.2015 22:38 1,9 C 1,1 C 89 % 1026,1 hPa 0,0 l/m 0 min 0 min 0 W/m 18,8 km/h (3 Bft)
07.01.2015 22:40 1,9 C 1,1 C 89 % 1026,0 hPa 0,0 l/m 0 min 0 min 0 W/m 10,5 km/h (2 Bft)
07.01.2015 22:42 1,9 C 1,1 C 89 % 1026,1 hPa 0,0 l/m 0 min 0 min 0 W/m 16,7 km/h (3 Bft)
07.01.2015 22:44 1,9 C 1,1 C 89 % 1026,0 hPa 0,0 l/m 0 min 0 min 0 W/m 12,6 km/h (3 Bft)
07.01.2015 22:46 1,9 C 1,1 C 89 % 1026,0 hPa 0,0 l/m 0 min 0 min 0 W/m 16,7 km/h (3 Bft)
07.01.2015 22:48 1,9 C 1,1 C 89 % 1025,9 hPa 0,0 l/m 0 min 0 min 0 W/m 16,7 km/h (3 Bft)
07.01.2015 22:50 1,9 C 1,1 C 89 % 1025,8 hPa 0,0 l/m 0 min 0 min 0 W/m 16,7 km/h (3 Bft)
07.01.2015 22:52 1,9 C 1,1 C 89 % 1025,7 hPa 0,0 l/m 0 min 0 min 0 W/m 12,6 km/h (3 Bft)
07.01.2015 22:54 1,9 C 1,1 C 89 % 1025,7 hPa 0,0 l/m 0 min 0 min 0 W/m 14,6 km/h (3 Bft)
07.01.2015 22:56 1,9 C 1,1 C 89 % 1025,6 hPa 0,0 l/m 0 min 0 min 0 W/m 18,8 km/h (3 Bft)
07.01.2015 22:58 1,9 C 1,1 C 89 % 1025,6 hPa 0,0 l/m 0 min 0 min 0 W/m 18,8 km/h (3 Bft)
07.01.2015 23:00 1,9 C 1,1 C 89 % 1025,6 hPa 0,0 l/m 0 min 0 min 0 W/m 20,9 km/h (4 Bft)
07.01.2015 23:02 1,9 C 1,1 C 89 % 1025,5 hPa 0,0 l/m 0 min 0 min 0 W/m 14,6 km/h (3 Bft)
07.01.2015 23:04 1,9 C 1,1 C 89 % 1025,6 hPa 0,0 l/m 0 min 0 min 0 W/m 18,8 km/h (3 Bft)
07.01.2015 23:06 1,9 C 1,1 C 89 % 1025,6 hPa 0,0 l/m 0 min 0 min 0 W/m 20,9 km/h (4 Bft)
07.01.2015 23:08 1,9 C 1,1 C 89 % 1025,6 hPa 0,0 l/m 0 min 0 min 0 W/m 20,9 km/h (4 Bft)
07.01.2015 23:10 1,9 C 1,1 C 89 % 1025,5 hPa 0,0 l/m 0 min 0 min 0 W/m 16,7 km/h (3 Bft)
07.01.2015 23:12 1,9 C 0,6 C 89 % 1025,6 hPa 0,0 l/m 0 min 0 min 0 W/m 23,0 km/h (4 Bft)
07.01.2015 23:14 1,9 C 0,6 C 89 % 1025,6 hPa 0,0 l/m 0 min 0 min 0 W/m 14,6 km/h (3 Bft)
07.01.2015 23:16 1,9 C 0,6 C 89 % 1025,5 hPa 0,0 l/m 0 min 0 min 0 W/m 20,9 km/h (4 Bft)
07.01.2015 23:18 1,9 C 0,6 C 89 % 1025,5 hPa 0,0 l/m 0 min 0 min 0 W/m 23,0 km/h (4 Bft)
07.01.2015 23:20 1,9 C 0,6 C 89 % 1025,4 hPa 0,0 l/m 0 min 0 min 0 W/m 20,9 km/h (4 Bft)
07.01.2015 23:22 1,9 C 1,1 C 89 % 1025,4 hPa 0,0 l/m 0 min 0 min 0 W/m 18,8 km/h (3 Bft)
07.01.2015 23:24 1,9 C 1,1 C 89 % 1025,4 hPa 0,0 l/m 0 min 0 min 0 W/m 12,6 km/h (3 Bft)
07.01.2015 23:26 1,9 C 1,1 C 89 % 1025,3 hPa 0,0 l/m 0 min 0 min 0 W/m 23,0 km/h (4 Bft)
07.01.2015 23:28 1,9 C 1,1 C 89 % 1025,5 hPa 0,0 l/m 0 min 0 min 0 W/m 20,9 km/h (4 Bft)
07.01.2015 23:30 1,9 C 1,1 C 89 % 1025,5 hPa 0,0 l/m 0 min 0 min 0 W/m 20,9 km/h (4 Bft)
07.01.2015 23:32 1,9 C 1,1 C 89 % 1025,5 hPa 0,0 l/m 0 min 0 min 0 W/m 20,9 km/h (4 Bft)
07.01.2015 23:34 1,9 C 1,1 C 89 % 1025,4 hPa 0,0 l/m 0 min 0 min 0 W/m 20,9 km/h (4 Bft)
07.01.2015 23:36 1,9 C 1,1 C 89 % 1025,5 hPa 0,0 l/m 0 min 0 min 0 W/m 23,0 km/h (4 Bft)
07.01.2015 23:38 1,9 C 1,1 C 89 % 1025,4 hPa 0,0 l/m 0 min 0 min 0 W/m 14,6 km/h (3 Bft)
07.01.2015 23:40 1,9 C 1,1 C 89 % 1025,5 hPa 0,0 l/m 0 min 0 min 0 W/m 16,7 km/h (3 Bft)
07.01.2015 23:42 1,9 C 1,1 C 89 % 1025,5 hPa 0,0 l/m 0 min 0 min 0 W/m 14,6 km/h (3 Bft)
07.01.2015 23:44 1,9 C 0,6 C 89 % 1025,3 hPa 0,0 l/m 0 min 0 min 0 W/m 20,9 km/h (4 Bft)
07.01.2015 23:46 1,9 C 0,6 C 89 % 1025,4 hPa 0,0 l/m 0 min 0 min 0 W/m 16,7 km/h (3 Bft)
07.01.2015 23:48 1,9 C 1,1 C 89 % 1025,5 hPa 0,0 l/m 0 min 0 min 0 W/m 16,7 km/h (3 Bft)
07.01.2015 23:50 1,9 C 1,1 C 89 % 1025,5 hPa 0,0 l/m 0 min 0 min 0 W/m 20,9 km/h (4 Bft)
07.01.2015 23:52 1,9 C 1,1 C 89 % 1025,5 hPa 0,0 l/m 0 min 0 min 0 W/m 18,8 km/h (3 Bft)
07.01.2015 23:54 1,9 C 1,1 C 89 % 1025,4 hPa 0,0 l/m 0 min 0 min 0 W/m 18,8 km/h (3 Bft)
07.01.2015 23:56 1,9 C 1,1 C 89 % 1025,4 hPa 0,0 l/m 0 min 0 min 0 W/m 14,6 km/h (3 Bft)
07.01.2015 23:58 1,9 C 1,1 C 89 % 1025,4 hPa 0,0 l/m 0 min 0 min 0 W/m 14,6 km/h (3 Bft)
_ Min-Zeit 22:40 21:52 14:18 00:00 - - - - 06:08
Minimum _ 0,4 C 0,0 C 82 % 1023,3 hPa - - - - 6,3 km/h (2 Bft)
_ Max-Zeit 13:56 12:56 04:12 10:48 01:06 08:52 00:00 12:28 13:14
Maximum _ 7,0 C 4,4 C 98 % 1028,6 hPa 0,2 l/m 2 min 2 min 251 W/m 35,6 km/h
W-SW (5 Bft)
Durchschnitt _ 3,8 C 2,3 C 93 % 1026,6 hPa #0,2 l/m #6:38 h #58 min. 131 W/m 16,5 km/h (3 Bft)
© 2015 W. Hausmann